Wetterdaten: Donnerstag, 19.10.2023
Datum Zeit Temp. Aussen Temp. o. S. Temp +5cm Feuchte Auss Luftdruck Regen Sonnenschein Regendauer Solar Windben Empfang
19.10.2023 00:00 10,4 C 9,4 C 5,6 C 95 % 996,4 hPa 1,6 l/m 0 min 2 min 0 W/m 22,5 km/h (4 Bft) 100,00 %
19.10.2023 00:05 10,4 C 9,4 C 5,6 C 95 % 996,3 hPa 0,4 l/m 0 min 5 min 0 W/m 12,9 km/h (3 Bft) 47,37 %
19.10.2023 00:10 10,4 C 9,4 C 5,6 C 95 % 996,2 hPa 0,0 l/m 0 min 0 min 0 W/m 22,5 km/h (4 Bft) 100,00 %
19.10.2023 00:15 10,4 C 9,4 C 5,6 C 95 % 996,1 hPa 0,0 l/m 0 min 0 min 0 W/m 38,6 km/h (5 Bft) 100,00 %
19.10.2023 00:20 10,4 C 9,4 C 6,1 C 96 % 996,1 hPa 0,0 l/m 0 min 0 min 0 W/m 19,3 km/h (3 Bft) 100,00 %
19.10.2023 00:25 10,4 C 9,4 C 6,1 C 96 % 996,0 hPa 0,0 l/m 0 min 0 min 0 W/m 22,5 km/h (4 Bft) 100,00 %
19.10.2023 00:30 10,4 C 9,4 C 6,1 C 96 % 995,9 hPa 0,0 l/m 0 min 0 min 0 W/m 22,5 km/h (4 Bft) 100,00 %
19.10.2023 00:35 10,4 C 9,4 C 6,1 C 96 % 995,9 hPa 0,0 l/m 0 min 0 min 0 W/m 22,5 km/h (4 Bft) 100,00 %
19.10.2023 00:40 10,4 C 9,4 C 6,1 C 96 % 995,8 hPa 0,0 l/m 0 min 0 min 0 W/m 19,3 km/h (3 Bft) 100,00 %
19.10.2023 00:45 10,4 C 9,4 C 6,1 C 96 % 995,7 hPa 0,0 l/m 0 min 0 min 0 W/m 22,5 km/h (4 Bft) 100,00 %
19.10.2023 00:50 10,4 C 9,4 C 6,1 C 97 % 995,6 hPa 0,0 l/m 0 min 0 min 0 W/m 19,3 km/h (3 Bft) 100,00 %
19.10.2023 00:55 10,4 C 9,4 C 6,1 C 96 % 995,6 hPa 0,0 l/m 0 min 0 min 0 W/m 19,3 km/h (3 Bft) 100,00 %
19.10.2023 01:00 10,4 C 9,4 C 6,1 C 97 % 995,6 hPa 0,0 l/m 0 min 0 min 0 W/m 22,5 km/h (4 Bft) 100,00 %
19.10.2023 01:05 10,4 C 9,4 C 6,1 C 97 % 995,5 hPa 0,0 l/m 0 min 0 min 0 W/m 19,3 km/h (3 Bft) 100,00 %
19.10.2023 01:10 10,4 C 9,4 C 6,1 C 97 % 995,6 hPa 0,0 l/m 0 min 0 min 0 W/m 25,7 km/h (4 Bft) 100,00 %
19.10.2023 01:15 10,4 C 9,4 C 6,1 C 97 % 995,4 hPa 0,0 l/m 0 min 0 min 0 W/m 19,3 km/h (3 Bft) 78,07 %
19.10.2023 01:20 10,4 C 9,4 C 6,1 C 97 % 995,3 hPa 0,0 l/m 0 min 0 min 0 W/m 25,7 km/h (4 Bft) 98,25 %
19.10.2023 01:25 10,4 C 9,4 C 6,1 C 97 % 995,2 hPa 0,0 l/m 0 min 0 min 0 W/m 25,7 km/h (4 Bft) 100,00 %
19.10.2023 01:30 10,4 C 9,4 C 6,1 C 97 % 995,1 hPa 0,0 l/m 0 min 0 min 0 W/m 22,5 km/h (4 Bft) 100,00 %
19.10.2023 01:35 10,5 C 9,4 C 6,1 C 97 % 995,1 hPa 0,0 l/m 0 min 0 min 0 W/m 22,5 km/h (4 Bft) 99,12 %
19.10.2023 01:40 10,5 C 9,4 C 6,1 C 97 % 995,0 hPa 0,0 l/m 0 min 0 min 0 W/m 25,7 km/h (4 Bft) 99,12 %
19.10.2023 01:45 10,5 C 9,4 C 6,1 C 97 % 995,1 hPa 0,0 l/m 0 min 0 min 0 W/m 19,3 km/h (3 Bft) 98,25 %
19.10.2023 01:50 10,6 C 10,0 C 6,1 C 97 % 995,1 hPa 0,0 l/m 0 min 0 min 0 W/m 19,3 km/h (3 Bft) 97,37 %
19.10.2023 01:55 10,6 C 10,0 C 6,1 C 97 % 995,0 hPa 0,0 l/m 0 min 0 min 0 W/m 19,3 km/h (3 Bft) 98,25 %
19.10.2023 02:00 10,6 C 10,0 C 6,1 C 97 % 995,0 hPa 0,0 l/m 0 min 0 min 0 W/m 19,3 km/h (3 Bft) 99,12 %
19.10.2023 02:05 10,6 C 10,0 C 6,1 C 97 % 994,9 hPa 0,0 l/m 0 min 0 min 0 W/m 16,1 km/h (3 Bft) 99,12 %
19.10.2023 02:10 10,6 C 10,0 C 6,1 C 97 % 995,0 hPa 0,0 l/m 0 min 0 min 0 W/m 16,1 km/h (3 Bft) 98,25 %
19.10.2023 02:15 10,7 C 10,0 C 6,1 C 97 % 994,9 hPa 0,0 l/m 0 min 0 min 0 W/m 19,3 km/h (3 Bft) 97,37 %
19.10.2023 02:20 10,7 C 10,0 C 6,1 C 97 % 994,8 hPa 0,0 l/m 0 min 0 min 0 W/m 16,1 km/h (3 Bft) 100,00 %
19.10.2023 02:25 10,7 C 10,0 C 6,1 C 97 % 994,8 hPa 0,0 l/m 0 min 0 min 0 W/m 32,2 km/h (5 Bft) 98,25 %
19.10.2023 02:30 10,7 C 10,0 C 6,7 C 97 % 994,8 hPa 0,0 l/m 0 min 0 min 0 W/m 12,9 km/h (3 Bft) 100,00 %
19.10.2023 02:35 10,7 C 10,0 C 6,7 C 97 % 994,8 hPa 0,0 l/m 0 min 0 min 0 W/m 22,5 km/h (4 Bft) 99,12 %
19.10.2023 02:40 10,8 C 10,0 C 6,7 C 97 % 994,7 hPa 0,0 l/m 0 min 0 min 0 W/m 12,9 km/h (3 Bft) 100,00 %
19.10.2023 02:45 10,8 C 10,0 C 6,7 C 97 % 994,9 hPa 0,0 l/m 0 min 0 min 0 W/m 16,1 km/h (3 Bft) 99,12 %
19.10.2023 02:50 10,8 C 10,0 C 6,7 C 97 % 994,8 hPa 0,0 l/m 0 min 0 min 0 W/m 16,1 km/h (3 Bft) 100,00 %
19.10.2023 02:55 10,8 C 10,0 C 6,7 C 97 % 994,7 hPa 0,0 l/m 0 min 0 min 0 W/m 22,5 km/h (4 Bft) 100,00 %
19.10.2023 03:00 10,9 C 10,0 C 6,7 C 97 % 994,6 hPa 0,0 l/m 0 min 0 min 0 W/m 12,9 km/h (3 Bft) 76,32 %
19.10.2023 03:05 10,9 C 10,6 C 6,7 C 98 % 994,6 hPa 0,0 l/m 0 min 0 min 0 W/m 19,3 km/h (3 Bft) 97,37 %
19.10.2023 03:10 11,0 C 10,6 C 6,7 C 98 % 994,5 hPa 0,0 l/m 0 min 0 min 0 W/m 25,7 km/h (4 Bft) 100,00 %
19.10.2023 03:15 11,1 C 10,6 C 6,7 C 98 % 994,6 hPa 0,0 l/m 0 min 0 min 0 W/m 16,1 km/h (3 Bft) 100,00 %
19.10.2023 03:20 11,1 C 10,6 C 6,7 C 98 % 994,7 hPa 0,0 l/m 0 min 0 min 0 W/m 12,9 km/h (3 Bft) 100,00 %
19.10.2023 03:25 11,1 C 10,6 C 6,7 C 98 % 994,7 hPa 0,0 l/m 0 min 0 min 0 W/m 16,1 km/h (3 Bft) 100,00 %
19.10.2023 03:30 11,2 C 10,6 C 6,7 C 98 % 994,6 hPa 0,0 l/m 0 min 0 min 0 W/m 16,1 km/h (3 Bft) 100,00 %
19.10.2023 03:35 11,2 C 10,6 C 7,2 C 98 % 994,7 hPa 0,0 l/m 0 min 0 min 0 W/m 19,3 km/h (3 Bft) 100,00 %
19.10.2023 03:40 11,3 C 10,6 C 7,2 C 98 % 994,6 hPa 0,0 l/m 0 min 0 min 0 W/m 12,9 km/h (3 Bft) 100,00 %
19.10.2023 03:45 11,3 C 10,6 C 7,2 C 98 % 994,6 hPa 0,0 l/m 0 min 0 min 0 W/m 12,9 km/h (3 Bft) 100,00 %
19.10.2023 03:50 11,4 C 10,6 C 7,2 C 98 % 994,6 hPa 0,0 l/m 0 min 0 min 0 W/m 19,3 km/h (3 Bft) 100,00 %
19.10.2023 03:55 11,4 C 10,6 C 7,2 C 98 % 994,4 hPa 0,0 l/m 0 min 0 min 0 W/m 16,1 km/h (3 Bft) 100,00 %
19.10.2023 04:00 11,4 C 10,6 C 7,2 C 98 % 994,4 hPa 0,0 l/m 0 min 0 min 0 W/m 16,1 km/h (3 Bft) 100,00 %
19.10.2023 04:05 11,4 C 10,6 C 7,2 C 98 % 994,3 hPa 0,0 l/m 0 min 0 min 0 W/m 16,1 km/h (3 Bft) 100,00 %
19.10.2023 04:10 11,4 C 10,6 C 7,2 C 98 % 994,3 hPa 0,0 l/m 0 min 0 min 0 W/m 12,9 km/h (3 Bft) 100,00 %
19.10.2023 04:15 11,5 C 10,6 C 7,2 C 98 % 994,3 hPa 0,0 l/m 0 min 0 min 0 W/m 6,4 km/h (2 Bft) 99,12 %
19.10.2023 04:20 11,5 C 11,1 C 7,2 C 98 % 994,3 hPa 0,0 l/m 0 min 0 min 0 W/m 6,4 km/h (2 Bft) 97,37 %
19.10.2023 04:25 11,6 C 11,1 C 7,2 C 98 % 994,3 hPa 0,0 l/m 0 min 0 min 0 W/m 12,9 km/h (3 Bft) 96,49 %
19.10.2023 04:30 11,6 C 11,1 C 7,2 C 98 % 994,4 hPa 0,0 l/m 0 min 0 min 0 W/m 0,0 km/h (0 Bft) 93,86 %
19.10.2023 04:35 11,6 C 11,1 C 7,2 C 98 % 994,3 hPa 0,0 l/m 0 min 0 min 0 W/m 12,9 km/h (3 Bft) 96,49 %
19.10.2023 04:56 11,8 C 11,1 C 7,8 C 98 % 994,2 hPa 0,0 l/m 0 min 0 min 0 W/m 6,4 km/h (2 Bft) 95,83 %
19.10.2023 04:58 11,8 C 11,1 C 7,8 C 98 % 994,3 hPa 0,0 l/m 0 min 0 min 0 W/m 12,9 km/h (3 Bft) 94,34 %
19.10.2023 05:00 11,8 C 11,1 C 7,8 C 98 % 994,3 hPa 0,0 l/m 0 min 0 min 0 W/m 0,0 km/h (0 Bft) 95,74 %
19.10.2023 05:02 11,8 C 11,1 C 7,8 C 98 % 994,2 hPa 0,0 l/m 0 min 0 min 0 W/m 6,4 km/h (2 Bft) 95,74 %
19.10.2023 05:04 11,8 C 11,1 C 7,8 C 98 % 994,2 hPa 0,0 l/m 0 min 0 min 0 W/m 12,9 km/h (3 Bft) 95,56 %
19.10.2023 05:06 11,9 C 11,1 C 7,8 C 98 % 994,1 hPa 0,0 l/m 0 min 0 min 0 W/m 12,9 km/h (3 Bft) 100,00 %
19.10.2023 05:08 11,9 C 11,1 C 7,8 C 98 % 994,1 hPa 0,0 l/m 0 min 0 min 0 W/m 12,9 km/h (3 Bft) 100,00 %
19.10.2023 05:10 11,9 C 11,1 C 7,8 C 98 % 994,1 hPa 0,0 l/m 0 min 0 min 0 W/m 6,4 km/h (2 Bft) 100,00 %
19.10.2023 05:12 11,9 C 11,1 C 7,8 C 98 % 994,1 hPa 0,0 l/m 0 min 0 min 0 W/m 6,4 km/h (2 Bft) 97,87 %
19.10.2023 05:14 11,9 C 11,1 C 7,8 C 98 % 994,1 hPa 0,0 l/m 0 min 0 min 0 W/m 6,4 km/h (2 Bft) 100,00 %
19.10.2023 05:16 11,9 C 11,1 C 7,8 C 98 % 994,1 hPa 0,0 l/m 0 min 0 min 0 W/m 12,9 km/h (3 Bft) 100,00 %
19.10.2023 05:18 11,9 C 11,1 C 7,8 C 98 % 994,0 hPa 0,0 l/m 0 min 0 min 0 W/m 3,2 km/h (1 Bft) 100,00 %
19.10.2023 05:20 11,9 C 11,1 C 7,8 C 98 % 994,1 hPa 0,0 l/m 0 min 0 min 0 W/m 3,2 km/h (1 Bft) 97,87 %
19.10.2023 05:22 11,9 C 11,1 C 7,8 C 98 % 994,1 hPa 0,0 l/m 0 min 0 min 0 W/m 3,2 km/h (1 Bft) 100,00 %
19.10.2023 05:24 12,0 C 11,1 C 7,8 C 98 % 994,1 hPa 0,0 l/m 0 min 0 min 0 W/m 3,2 km/h (1 Bft) 100,00 %
19.10.2023 05:26 12,0 C 11,1 C 7,8 C 98 % 994,1 hPa 0,0 l/m 0 min 0 min 0 W/m 6,4 km/h (2 Bft) 100,00 %
19.10.2023 05:28 12,0 C 11,1 C 7,8 C 98 % 994,1 hPa 0,0 l/m 0 min 0 min 0 W/m 3,2 km/h (1 Bft) 100,00 %
19.10.2023 05:30 12,0 C 11,1 C 7,8 C 98 % 994,1 hPa 0,0 l/m 0 min 0 min 0 W/m 6,4 km/h (2 Bft) 100,00 %
19.10.2023 05:32 12,0 C 11,1 C 7,8 C 98 % 994,0 hPa 0,0 l/m 0 min 0 min 0 W/m 6,4 km/h (2 Bft) 100,00 %
19.10.2023 05:34 12,0 C 11,1 C 7,8 C 98 % 993,9 hPa 0,0 l/m 0 min 0 min 0 W/m 6,4 km/h (2 Bft) 100,00 %
19.10.2023 05:36 12,0 C 11,1 C 7,8 C 98 % 994,0 hPa 0,0 l/m 0 min 0 min 0 W/m 6,4 km/h (2 Bft) 100,00 %
19.10.2023 05:38 12,0 C 11,1 C 7,8 C 98 % 994,0 hPa 0,0 l/m 0 min 0 min 0 W/m 6,4 km/h (2 Bft) 100,00 %
19.10.2023 05:40 12,0 C 11,1 C 7,8 C 98 % 994,0 hPa 0,0 l/m 0 min 0 min 0 W/m 3,2 km/h (1 Bft) 97,87 %
19.10.2023 05:42 12,0 C 11,1 C 7,8 C 98 % 994,0 hPa 0,0 l/m 0 min 0 min 0 W/m 3,2 km/h (1 Bft) 100,00 %
19.10.2023 05:44 12,0 C 11,1 C 7,8 C 98 % 994,0 hPa 0,0 l/m 0 min 0 min 0 W/m 12,9 km/h (3 Bft) 97,87 %
19.10.2023 05:46 12,0 C 11,7 C 7,8 C 98 % 993,8 hPa 0,0 l/m 0 min 0 min 0 W/m 12,9 km/h (3 Bft) 100,00 %
19.10.2023 05:48 12,1 C 11,7 C 7,8 C 98 % 993,8 hPa 0,0 l/m 0 min 0 min 0 W/m 3,2 km/h (1 Bft) 97,87 %
19.10.2023 05:50 12,1 C 11,1 C 7,8 C 98 % 993,9 hPa 0,0 l/m 0 min 0 min 0 W/m 6,4 km/h (2 Bft) 100,00 %
19.10.2023 05:52 12,1 C 11,1 C 7,8 C 98 % 993,8 hPa 0,0 l/m 0 min 0 min 0 W/m 6,4 km/h (2 Bft) 100,00 %
19.10.2023 05:54 12,1 C 11,1 C 7,8 C 98 % 993,8 hPa 0,0 l/m 0 min 0 min 0 W/m 6,4 km/h (2 Bft) 100,00 %
19.10.2023 05:56 12,1 C 11,1 C 7,8 C 98 % 993,7 hPa 0,0 l/m 0 min 0 min 0 W/m 6,4 km/h (2 Bft) 100,00 %
19.10.2023 05:58 12,0 C 11,1 C 7,8 C 98 % 993,7 hPa 0,0 l/m 0 min 0 min 0 W/m 0,0 km/h (0 Bft) 100,00 %
19.10.2023 06:00 12,0 C 11,1 C 7,8 C 98 % 993,7 hPa 0,0 l/m 0 min 0 min 0 W/m 3,2 km/h (1 Bft) 100,00 %
19.10.2023 06:02 12,0 C 11,1 C 7,8 C 98 % 993,7 hPa 0,0 l/m 0 min 0 min 0 W/m 3,2 km/h (1 Bft) 100,00 %
19.10.2023 06:04 12,0 C 11,1 C 7,8 C 98 % 993,7 hPa 0,0 l/m 0 min 0 min 0 W/m 12,9 km/h (3 Bft) 97,96 %
19.10.2023 06:08 12,0 C 11,1 C 7,8 C 98 % 993,7 hPa 0,0 l/m 0 min 0 min 0 W/m 12,9 km/h (3 Bft) 100,00 %
19.10.2023 06:10 12,0 C 11,1 C 7,8 C 98 % 993,7 hPa 0,0 l/m 0 min 0 min 0 W/m 12,9 km/h (3 Bft) 100,00 %
19.10.2023 06:12 12,0 C 11,1 C 7,8 C 98 % 993,7 hPa 0,0 l/m 0 min 0 min 0 W/m 6,4 km/h (2 Bft) 100,00 %
19.10.2023 06:14 12,0 C 11,1 C 7,8 C 98 % 993,6 hPa 0,0 l/m 0 min 0 min 0 W/m 6,4 km/h (2 Bft) 100,00 %
19.10.2023 06:16 12,0 C 11,1 C 7,8 C 98 % 993,6 hPa 0,0 l/m 0 min 0 min 0 W/m 6,4 km/h (2 Bft) 95,65 %
19.10.2023 06:18 12,0 C 11,1 C 7,8 C 98 % 993,6 hPa 0,0 l/m 0 min 0 min 0 W/m 6,4 km/h (2 Bft) 97,87 %
19.10.2023 06:20 12,0 C 11,1 C 7,8 C 98 % 993,7 hPa 0,0 l/m 0 min 0 min 0 W/m 6,4 km/h (2 Bft) 97,87 %
19.10.2023 06:22 12,0 C 11,7 C 7,8 C 98 % 993,7 hPa 0,0 l/m 0 min 0 min 0 W/m 3,2 km/h (1 Bft) 97,87 %
19.10.2023 06:24 12,0 C 11,7 C 7,8 C 98 % 993,7 hPa 0,0 l/m 0 min 0 min 0 W/m 6,4 km/h (2 Bft) 97,87 %
19.10.2023 06:26 12,1 C 11,7 C 7,8 C 98 % 993,7 hPa 0,0 l/m 0 min 0 min 0 W/m 16,1 km/h (3 Bft) 95,74 %
19.10.2023 06:28 12,1 C 11,7 C 7,8 C 98 % 993,7 hPa 0,0 l/m 0 min 0 min 0 W/m 6,4 km/h (2 Bft) 95,74 %
19.10.2023 06:30 12,1 C 11,7 C 7,8 C 98 % 993,7 hPa 0,0 l/m 0 min 0 min 0 W/m 6,4 km/h (2 Bft) 97,83 %
19.10.2023 06:32 12,1 C 11,7 C 7,8 C 98 % 993,7 hPa 0,0 l/m 0 min 0 min 0 W/m 6,4 km/h (2 Bft) 97,87 %
19.10.2023 06:34 12,1 C 11,1 C 7,8 C 98 % 993,7 hPa 0,0 l/m 0 min 0 min 0 W/m 6,4 km/h (2 Bft) 97,87 %
19.10.2023 06:36 12,1 C 11,1 C 7,8 C 98 % 993,7 hPa 0,0 l/m 0 min 0 min 0 W/m 12,9 km/h (3 Bft) 95,74 %
19.10.2023 06:38 12,0 C 11,1 C 7,8 C 98 % 993,7 hPa 0,0 l/m 0 min 0 min 0 W/m 6,4 km/h (2 Bft) 97,87 %
19.10.2023 06:40 12,0 C 11,1 C 7,8 C 98 % 993,7 hPa 0,0 l/m 0 min 0 min 0 W/m 12,9 km/h (3 Bft) 97,87 %
19.10.2023 06:42 12,0 C 11,1 C 7,8 C 98 % 993,7 hPa 0,0 l/m 0 min 0 min 0 W/m 6,4 km/h (2 Bft) 97,87 %
19.10.2023 06:44 12,0 C 11,1 C 7,8 C 98 % 993,6 hPa 0,0 l/m 0 min 0 min 0 W/m 6,4 km/h (2 Bft) 97,87 %
19.10.2023 06:46 12,0 C 11,1 C 7,8 C 98 % 993,7 hPa 0,0 l/m 0 min 0 min 0 W/m 6,4 km/h (2 Bft) 94,23 %
19.10.2023 06:48 11,9 C 11,1 C 7,8 C 98 % 993,7 hPa 0,0 l/m 0 min 0 min 0 W/m 6,4 km/h (2 Bft) 100,00 %
19.10.2023 06:50 12,0 C 11,1 C 7,8 C 98 % 993,6 hPa 0,0 l/m 0 min 0 min 0 W/m 12,9 km/h (3 Bft) 100,00 %
19.10.2023 06:52 12,0 C 11,1 C 7,8 C 98 % 993,6 hPa 0,0 l/m 0 min 0 min 0 W/m 12,9 km/h (3 Bft) 100,00 %
19.10.2023 06:54 12,0 C 11,1 C 7,8 C 98 % 993,6 hPa 0,0 l/m 0 min 0 min 0 W/m 6,4 km/h (2 Bft) 100,00 %
19.10.2023 06:56 12,0 C 11,1 C 7,8 C 98 % 993,6 hPa 0,0 l/m 0 min 0 min 0 W/m 6,4 km/h (2 Bft) 97,87 %
19.10.2023 06:58 12,0 C 11,1 C 7,8 C 98 % 993,7 hPa 0,0 l/m 0 min 0 min 0 W/m 6,4 km/h (2 Bft) 97,87 %
19.10.2023 07:00 12,0 C 11,7 C 7,8 C 98 % 993,7 hPa 0,0 l/m 0 min 0 min 0 W/m 6,4 km/h (2 Bft) 97,87 %
19.10.2023 07:02 12,0 C 11,1 C 7,8 C 98 % 993,7 hPa 0,0 l/m 0 min 0 min 0 W/m 3,2 km/h (1 Bft) 97,87 %
19.10.2023 07:04 12,0 C 11,1 C 7,8 C 98 % 993,7 hPa 0,0 l/m 0 min 0 min 0 W/m 6,4 km/h (2 Bft) 95,35 %
19.10.2023 07:06 12,1 C 11,7 C 7,8 C 98 % 993,7 hPa 0,0 l/m 0 min 0 min 0 W/m 6,4 km/h (2 Bft) 95,74 %
19.10.2023 07:08 12,0 C 11,1 C 7,8 C 98 % 993,8 hPa 0,0 l/m 0 min 0 min 0 W/m 3,2 km/h (1 Bft) 93,62 %
19.10.2023 07:10 12,1 C 11,1 C 7,8 C 98 % 993,7 hPa 0,0 l/m 0 min 0 min 0 W/m 6,4 km/h (2 Bft) 95,74 %
19.10.2023 07:12 12,0 C 11,1 C 7,8 C 98 % 993,7 hPa 0,0 l/m 0 min 0 min 0 W/m 6,4 km/h (2 Bft) 95,65 %
19.10.2023 07:14 12,1 C 11,1 C 7,8 C 98 % 993,8 hPa 0,0 l/m 0 min 0 min 0 W/m 3,2 km/h (1 Bft) 95,74 %
19.10.2023 07:16 12,1 C 11,1 C 7,8 C 98 % 993,8 hPa 0,0 l/m 0 min 0 min 0 W/m 3,2 km/h (1 Bft) 95,74 %
19.10.2023 07:18 12,1 C 11,1 C 7,8 C 98 % 993,8 hPa 0,0 l/m 0 min 0 min 0 W/m 3,2 km/h (1 Bft) 94,29 %
19.10.2023 07:20 12,1 C 11,1 C 7,8 C 98 % 993,7 hPa 0,0 l/m 0 min 0 min 0 W/m 3,2 km/h (1 Bft) 94,92 %
19.10.2023 07:22 12,1 C 11,1 C 7,8 C 98 % 993,8 hPa 0,0 l/m 0 min 0 min 0 W/m 6,4 km/h (2 Bft) 95,74 %
19.10.2023 07:24 12,1 C 11,1 C 7,8 C 98 % 993,8 hPa 0,0 l/m 0 min 0 min 0 W/m 3,2 km/h (1 Bft) 97,14 %
19.10.2023 07:26 12,1 C 11,1 C 7,8 C 98 % 993,7 hPa 0,0 l/m 0 min 0 min 0 W/m 3,2 km/h (1 Bft) 93,62 %
19.10.2023 07:28 12,1 C 11,1 C 7,8 C 98 % 993,7 hPa 0,0 l/m 0 min 0 min 0 W/m 3,2 km/h (1 Bft) 91,30 %
19.10.2023 07:30 12,1 C 11,1 C 7,8 C 98 % 993,7 hPa 0,0 l/m 0 min 0 min 0 W/m 6,4 km/h (2 Bft) 95,74 %
19.10.2023 07:32 12,1 C 11,1 C 7,8 C 98 % 993,7 hPa 0,0 l/m 0 min 0 min 0 W/m 3,2 km/h (1 Bft) 93,62 %
19.10.2023 07:34 12,0 C 11,1 C 7,8 C 98 % 993,7 hPa 0,0 l/m 0 min 0 min 0 W/m 6,4 km/h (2 Bft) 96,49 %
19.10.2023 07:36 12,1 C 11,1 C 7,8 C 98 % 993,7 hPa 0,0 l/m 0 min 0 min 0 W/m 6,4 km/h (2 Bft) 95,74 %
19.10.2023 07:38 12,1 C 11,1 C 7,8 C 98 % 993,7 hPa 0,0 l/m 0 min 0 min 0 W/m 6,4 km/h (2 Bft) 95,74 %
19.10.2023 07:40 12,1 C 11,1 C 7,8 C 98 % 993,7 hPa 0,0 l/m 0 min 0 min 0 W/m 3,2 km/h (1 Bft) 91,49 %
19.10.2023 07:42 12,1 C 11,7 C 7,8 C 98 % 993,7 hPa 0,0 l/m 0 min 0 min 0 W/m 3,2 km/h (1 Bft) 97,87 %
19.10.2023 07:44 12,1 C 11,7 C 7,8 C 98 % 993,7 hPa 0,0 l/m 0 min 0 min 0 W/m 3,2 km/h (1 Bft) 97,83 %
19.10.2023 07:46 12,1 C 11,7 C 7,8 C 98 % 993,7 hPa 0,0 l/m 0 min 0 min 0 W/m 3,2 km/h (1 Bft) 97,87 %
19.10.2023 07:48 12,1 C 11,7 C 7,8 C 98 % 993,7 hPa 0,0 l/m 0 min 0 min 0 W/m 6,4 km/h (2 Bft) 95,74 %
19.10.2023 07:50 12,1 C 11,1 C 7,8 C 98 % 993,7 hPa 0,0 l/m 0 min 0 min 0 W/m 3,2 km/h (1 Bft) 97,87 %
19.10.2023 07:52 12,1 C 11,7 C 7,8 C 98 % 993,8 hPa 0,0 l/m 0 min 0 min 0 W/m 3,2 km/h (1 Bft) 97,87 %
19.10.2023 07:54 12,1 C 11,7 C 7,8 C 98 % 993,8 hPa 0,0 l/m 0 min 0 min 0 W/m 3,2 km/h (1 Bft) 97,87 %
19.10.2023 07:56 12,1 C 11,1 C 7,8 C 98 % 993,8 hPa 0,0 l/m 0 min 0 min 0 W/m 3,2 km/h (1 Bft) 100,00 %
19.10.2023 07:58 12,1 C 11,1 C 7,8 C 98 % 993,7 hPa 0,0 l/m 0 min 0 min 0 W/m 3,2 km/h (1 Bft) 100,00 %
19.10.2023 08:00 12,1 C 11,1 C 7,8 C 98 % 993,8 hPa 0,0 l/m 0 min 0 min 0 W/m 3,2 km/h (1 Bft) 100,00 %
19.10.2023 08:02 12,1 C 11,7 C 7,8 C 98 % 993,8 hPa 0,0 l/m 0 min 0 min 0 W/m 12,9 km/h (3 Bft) 100,00 %
19.10.2023 08:04 12,1 C 11,7 C 7,8 C 98 % 993,9 hPa 0,0 l/m 0 min 0 min 0 W/m 12,9 km/h (3 Bft) 100,00 %
19.10.2023 08:06 12,1 C 11,7 C 7,8 C 98 % 994,0 hPa 0,0 l/m 0 min 0 min 0 W/m 6,4 km/h (2 Bft) 100,00 %
19.10.2023 08:08 12,1 C 11,7 C 7,8 C 98 % 994,0 hPa 0,0 l/m 0 min 0 min 0 W/m 6,4 km/h (2 Bft) 100,00 %
19.10.2023 08:10 12,1 C 11,7 C 7,8 C 98 % 994,0 hPa 0,0 l/m 0 min 0 min 0 W/m 12,9 km/h (3 Bft) 95,74 %
19.10.2023 08:12 12,1 C 11,7 C 7,8 C 98 % 993,9 hPa 0,0 l/m 0 min 0 min 0 W/m 3,2 km/h (1 Bft) 97,83 %
19.10.2023 08:14 12,1 C 11,7 C 7,8 C 98 % 994,0 hPa 0,0 l/m 0 min 0 min 0 W/m 3,2 km/h (1 Bft) 95,74 %
19.10.2023 08:16 12,1 C 11,7 C 7,8 C 98 % 994,0 hPa 0,0 l/m 0 min 0 min 0 W/m 3,2 km/h (1 Bft) 95,74 %
19.10.2023 08:18 12,1 C 11,7 C 7,8 C 98 % 994,0 hPa 0,0 l/m 0 min 0 min 0 W/m 3,2 km/h (1 Bft) 97,87 %
19.10.2023 08:20 12,1 C 11,7 C 7,8 C 98 % 994,0 hPa 0,0 l/m 0 min 0 min 0 W/m 0,0 km/h (0 Bft) 97,87 %
19.10.2023 08:22 12,1 C 11,7 C 7,8 C 98 % 994,0 hPa 0,0 l/m 0 min 0 min 0 W/m 0,0 km/h (0 Bft) 97,87 %
19.10.2023 08:24 12,1 C 11,7 C 7,8 C 98 % 994,0 hPa 0,0 l/m 0 min 0 min 0 W/m 0,0 km/h (0 Bft) 97,87 %
19.10.2023 08:26 12,1 C 11,7 C 7,8 C 98 % 994,0 hPa 0,0 l/m 0 min 0 min 0 W/m 0,0 km/h (0 Bft) 97,83 %
19.10.2023 08:28 12,1 C 11,7 C 7,8 C 98 % 994,0 hPa 0,0 l/m 0 min 0 min 3 W/m 0,0 km/h (0 Bft) 95,74 %
19.10.2023 08:30 12,1 C 11,7 C 7,8 C 98 % 994,1 hPa 0,0 l/m 0 min 0 min 5 W/m 0,0 km/h (0 Bft) 97,87 %
19.10.2023 08:32 12,1 C 11,7 C 7,8 C 98 % 994,1 hPa 0,0 l/m 0 min 0 min 7 W/m 0,0 km/h (0 Bft) 97,87 %
19.10.2023 08:34 12,1 C 11,7 C 7,8 C 98 % 994,1 hPa 0,0 l/m 0 min 0 min 9 W/m 0,0 km/h (0 Bft) 97,87 %
19.10.2023 08:36 12,2 C 11,7 C 7,8 C 98 % 994,1 hPa 0,0 l/m 0 min 0 min 9 W/m 0,0 km/h (0 Bft) 97,87 %
19.10.2023 08:38 12,2 C 11,7 C 7,8 C 98 % 994,1 hPa 0,0 l/m 0 min 0 min 11 W/m 0,0 km/h (0 Bft) 97,87 %
19.10.2023 08:40 12,2 C 11,7 C 8,3 C 99 % 994,1 hPa 0,0 l/m 0 min 0 min 11 W/m 0,0 km/h (0 Bft) 97,83 %
19.10.2023 08:42 12,2 C 11,7 C 8,3 C 99 % 994,1 hPa 0,0 l/m 0 min 0 min 11 W/m 0,0 km/h (0 Bft) 100,00 %
19.10.2023 08:44 12,2 C 11,7 C 8,3 C 99 % 994,1 hPa 0,0 l/m 0 min 0 min 12 W/m 0,0 km/h (0 Bft) 100,00 %
19.10.2023 08:46 12,2 C 11,7 C 8,3 C 99 % 994,1 hPa 0,0 l/m 0 min 0 min 12 W/m 0,0 km/h (0 Bft) 97,87 %
19.10.2023 08:48 12,2 C 11,7 C 8,3 C 99 % 994,1 hPa 0,0 l/m 0 min 0 min 14 W/m 0,0 km/h (0 Bft) 100,00 %
19.10.2023 08:50 12,2 C 11,7 C 8,3 C 99 % 994,1 hPa 0,0 l/m 0 min 0 min 16 W/m 0,0 km/h (0 Bft) 100,00 %
19.10.2023 08:52 12,3 C 11,7 C 8,3 C 99 % 994,2 hPa 0,0 l/m 0 min 0 min 14 W/m 0,0 km/h (0 Bft) 97,92 %
19.10.2023 08:54 12,3 C 11,7 C 8,3 C 99 % 994,1 hPa 0,0 l/m 0 min 0 min 13 W/m 0,0 km/h (0 Bft) 100,00 %
19.10.2023 08:56 12,3 C 11,7 C 8,3 C 99 % 994,2 hPa 0,0 l/m 0 min 0 min 14 W/m 0,0 km/h (0 Bft) 100,00 %
19.10.2023 08:58 12,3 C 11,7 C 8,3 C 99 % 994,1 hPa 0,0 l/m 0 min 0 min 16 W/m 0,0 km/h (0 Bft) 97,87 %
19.10.2023 09:00 12,3 C 11,7 C 8,3 C 99 % 994,1 hPa 0,0 l/m 0 min 0 min 18 W/m 0,0 km/h (0 Bft) 97,87 %
19.10.2023 09:02 12,3 C 11,7 C 8,3 C 99 % 994,2 hPa 0,0 l/m 0 min 0 min 16 W/m 0,0 km/h (0 Bft) 97,87 %
19.10.2023 09:04 12,3 C 11,7 C 8,3 C 99 % 994,1 hPa 0,0 l/m 0 min 0 min 16 W/m 0,0 km/h (0 Bft) 100,00 %
19.10.2023 09:06 12,3 C 11,7 C 8,3 C 99 % 994,1 hPa 0,0 l/m 0 min 0 min 18 W/m 0,0 km/h (0 Bft) 100,00 %
19.10.2023 09:08 12,3 C 12,2 C 8,3 C 99 % 994,2 hPa 0,0 l/m 0 min 0 min 19 W/m 0,0 km/h (0 Bft) 100,00 %
19.10.2023 09:10 12,4 C 12,2 C 8,3 C 99 % 994,2 hPa 0,0 l/m 0 min 0 min 19 W/m 0,0 km/h (0 Bft) 97,87 %
19.10.2023 09:12 12,4 C 12,2 C 8,3 C 99 % 994,2 hPa 0,0 l/m 0 min 0 min 23 W/m 0,0 km/h (0 Bft) 100,00 %
19.10.2023 09:14 12,4 C 12,2 C 8,3 C 99 % 994,2 hPa 0,0 l/m 0 min 0 min 25 W/m 0,0 km/h (0 Bft) 100,00 %
19.10.2023 09:16 12,4 C 12,2 C 8,3 C 99 % 994,2 hPa 0,0 l/m 0 min 0 min 22 W/m 0,0 km/h (0 Bft) 100,00 %
19.10.2023 09:18 12,4 C 12,2 C 8,3 C 99 % 994,2 hPa 0,0 l/m 0 min 0 min 21 W/m 0,0 km/h (0 Bft) 100,00 %
19.10.2023 09:20 12,4 C 12,2 C 8,3 C 99 % 994,4 hPa 0,0 l/m 0 min 0 min 19 W/m 0,0 km/h (0 Bft) 100,00 %
19.10.2023 09:22 12,5 C 12,2 C 8,3 C 99 % 994,3 hPa 0,0 l/m 0 min 0 min 21 W/m 0,0 km/h (0 Bft) 100,00 %
19.10.2023 09:24 12,5 C 12,2 C 8,3 C 99 % 994,3 hPa 0,0 l/m 0 min 0 min 23 W/m 0,0 km/h (0 Bft) 97,87 %
19.10.2023 09:26 12,5 C 12,2 C 8,3 C 99 % 994,3 hPa 0,0 l/m 0 min 0 min 24 W/m 0,0 km/h (0 Bft) 95,74 %
19.10.2023 09:28 12,6 C 12,2 C 8,3 C 99 % 994,3 hPa 0,0 l/m 0 min 0 min 26 W/m 0,0 km/h (0 Bft) 97,87 %
19.10.2023 09:30 12,6 C 12,2 C 8,3 C 99 % 994,3 hPa 0,0 l/m 0 min 0 min 28 W/m 0,0 km/h (0 Bft) 100,00 %
19.10.2023 09:32 12,6 C 12,2 C 8,3 C 99 % 994,3 hPa 0,0 l/m 0 min 0 min 28 W/m 0,0 km/h (0 Bft) 97,87 %
19.10.2023 09:34 12,6 C 12,2 C 8,3 C 99 % 994,2 hPa 0,0 l/m 0 min 0 min 29 W/m 0,0 km/h (0 Bft) 100,00 %
19.10.2023 09:36 12,6 C 12,2 C 8,3 C 99 % 994,3 hPa 0,0 l/m 0 min 0 min 31 W/m 0,0 km/h (0 Bft) 100,00 %
19.10.2023 09:38 12,6 C 12,2 C 8,9 C 99 % 994,2 hPa 0,0 l/m 0 min 0 min 33 W/m 0,0 km/h (0 Bft) 97,87 %
19.10.2023 09:40 12,6 C 12,2 C 8,9 C 99 % 994,3 hPa 0,0 l/m 0 min 0 min 39 W/m 0,0 km/h (0 Bft) 97,87 %
19.10.2023 09:42 12,7 C 12,2 C 8,9 C 99 % 994,2 hPa 0,0 l/m 0 min 0 min 41 W/m 0,0 km/h (0 Bft) 97,87 %
19.10.2023 09:44 12,7 C 12,2 C 8,9 C 99 % 994,2 hPa 0,0 l/m 0 min 0 min 42 W/m 0,0 km/h (0 Bft) 97,87 %
19.10.2023 09:46 12,7 C 12,2 C 8,9 C 99 % 994,2 hPa 0,0 l/m 0 min 0 min 41 W/m 0,0 km/h (0 Bft) 97,83 %
19.10.2023 09:48 12,7 C 12,2 C 8,9 C 99 % 994,3 hPa 0,0 l/m 0 min 0 min 42 W/m 0,0 km/h (0 Bft) 97,87 %
19.10.2023 09:50 12,7 C 12,2 C 8,9 C 99 % 994,2 hPa 0,0 l/m 0 min 0 min 45 W/m 0,0 km/h (0 Bft) 97,87 %
19.10.2023 09:52 12,7 C 12,8 C 8,9 C 99 % 994,3 hPa 0,0 l/m 0 min 0 min 49 W/m 0,0 km/h (0 Bft) 97,87 %
19.10.2023 09:54 12,8 C 12,8 C 8,9 C 99 % 994,3 hPa 0,0 l/m 0 min 0 min 53 W/m 0,0 km/h (0 Bft) 94,00 %
19.10.2023 09:56 12,8 C 12,8 C 8,9 C 99 % 994,3 hPa 0,0 l/m 0 min 0 min 55 W/m 0,0 km/h (0 Bft) 95,74 %
19.10.2023 09:58 12,8 C 12,8 C 8,9 C 99 % 994,2 hPa 0,0 l/m 0 min 0 min 64 W/m 0,0 km/h (0 Bft) 95,74 %
19.10.2023 10:00 12,8 C 12,8 C 8,9 C 99 % 994,2 hPa 0,0 l/m 0 min 0 min 89 W/m 0,0 km/h (0 Bft) 97,83 %
19.10.2023 10:02 12,9 C 12,8 C 8,9 C 99 % 994,1 hPa 0,0 l/m 0 min 0 min 119 W/m 0,0 km/h (0 Bft) 93,62 %
19.10.2023 10:04 12,9 C 13,3 C 8,9 C 99 % 994,1 hPa 0,0 l/m 0 min 0 min 129 W/m 0,0 km/h (0 Bft) 93,88 %
19.10.2023 10:06 12,9 C 13,3 C 8,9 C 99 % 994,1 hPa 0,0 l/m 0 min 0 min 125 W/m 0,0 km/h (0 Bft) 93,62 %
19.10.2023 10:08 13,0 C 13,3 C 8,9 C 99 % 994,2 hPa 0,0 l/m 0 min 0 min 78 W/m 0,0 km/h (0 Bft) 93,62 %
19.10.2023 10:10 13,1 C 13,3 C 8,9 C 99 % 994,1 hPa 0,0 l/m 0 min 0 min 72 W/m 0,0 km/h (0 Bft) 93,62 %
19.10.2023 10:12 13,1 C 13,3 C 8,9 C 99 % 994,1 hPa 0,0 l/m 0 min 0 min 73 W/m 0,0 km/h (0 Bft) 93,62 %
19.10.2023 10:14 13,1 C 13,3 C 8,9 C 99 % 994,1 hPa 0,0 l/m 0 min 0 min 83 W/m 0,0 km/h (0 Bft) 91,49 %
19.10.2023 10:16 13,2 C 13,3 C 9,4 C 99 % 994,2 hPa 0,0 l/m 0 min 0 min 80 W/m 0,0 km/h (0 Bft) 93,62 %
19.10.2023 10:18 13,2 C 13,3 C 9,4 C 99 % 994,2 hPa 0,0 l/m 0 min 0 min 82 W/m 0,0 km/h (0 Bft) 93,48 %
19.10.2023 10:20 13,2 C 13,3 C 9,4 C 99 % 994,1 hPa 0,0 l/m 0 min 0 min 83 W/m 0,0 km/h (0 Bft) 91,49 %
19.10.2023 10:22 13,2 C 13,3 C 9,4 C 99 % 994,1 hPa 0,0 l/m 0 min 0 min 76 W/m 0,0 km/h (0 Bft) 91,49 %
19.10.2023 10:24 13,3 C 13,3 C 9,4 C 99 % 994,2 hPa 0,0 l/m 0 min 0 min 70 W/m 0,0 km/h (0 Bft) 89,36 %
19.10.2023 10:26 13,3 C 13,3 C 9,4 C 99 % 994,1 hPa 0,0 l/m 0 min 0 min 79 W/m 0,0 km/h (0 Bft) 95,74 %
19.10.2023 10:28 13,4 C 13,3 C 9,4 C 99 % 994,1 hPa 0,0 l/m 0 min 0 min 86 W/m 0,0 km/h (0 Bft) 93,62 %
19.10.2023 10:30 13,4 C 13,9 C 9,4 C 99 % 994,0 hPa 0,0 l/m 0 min 0 min 87 W/m 0,0 km/h (0 Bft) 97,22 %
19.10.2023 10:32 13,4 C 13,9 C 9,4 C 99 % 994,1 hPa 0,0 l/m 0 min 0 min 88 W/m 0,0 km/h (0 Bft) 93,62 %
19.10.2023 10:34 13,5 C 13,9 C 9,4 C 99 % 994,1 hPa 0,0 l/m 0 min 0 min 89 W/m 0,0 km/h (0 Bft) 95,65 %
19.10.2023 10:36 13,6 C 13,9 C 9,4 C 99 % 994,1 hPa 0,0 l/m 0 min 0 min 96 W/m 0,0 km/h (0 Bft) 94,55 %
19.10.2023 10:38 13,6 C 13,9 C 9,4 C 99 % 994,1 hPa 0,0 l/m 0 min 0 min 99 W/m 0,0 km/h (0 Bft) 95,74 %
19.10.2023 10:40 13,6 C 13,9 C 9,4 C 99 % 994,0 hPa 0,0 l/m 0 min 0 min 111 W/m 0,0 km/h (0 Bft) 98,00 %
19.10.2023 10:42 13,7 C 13,9 C 9,4 C 99 % 994,0 hPa 0,0 l/m 0 min 0 min 107 W/m 0,0 km/h (0 Bft) 95,74 %
19.10.2023 10:44 13,7 C 13,9 C 9,4 C 99 % 994,0 hPa 0,0 l/m 0 min 0 min 109 W/m 0,0 km/h (0 Bft) 97,22 %
19.10.2023 10:46 13,7 C 13,9 C 9,4 C 99 % 993,9 hPa 0,0 l/m 0 min 0 min 123 W/m 0,0 km/h (0 Bft) 100,00 %
19.10.2023 10:48 13,8 C 14,4 C 9,4 C 99 % 993,9 hPa 0,0 l/m 0 min 0 min 123 W/m 0,0 km/h (0 Bft) 100,00 %
19.10.2023 10:50 13,8 C 14,4 C 10,0 C 99 % 993,9 hPa 0,0 l/m 0 min 0 min 143 W/m 0,0 km/h (0 Bft) 97,87 %
19.10.2023 10:52 13,8 C 14,4 C 10,0 C 99 % 993,8 hPa 0,0 l/m 2 min 0 min 200 W/m 0,0 km/h (0 Bft) 97,87 %
19.10.2023 10:54 13,9 C 15,0 C 10,0 C 99 % 993,9 hPa 0,0 l/m 2 min 0 min 225 W/m 0,0 km/h (0 Bft) 100,00 %
19.10.2023 10:56 14,0 C 15,0 C 10,0 C 99 % 994,0 hPa 0,0 l/m 2 min 0 min 238 W/m 0,0 km/h (0 Bft) 100,00 %
19.10.2023 10:58 14,1 C 15,6 C 10,6 C 99 % 993,9 hPa 0,0 l/m 2 min 0 min 246 W/m 0,0 km/h (0 Bft) 100,00 %
19.10.2023 11:00 14,2 C 15,6 C 10,6 C 99 % 993,8 hPa 0,0 l/m 2 min 0 min 217 W/m 0,0 km/h (0 Bft) 100,00 %
19.10.2023 11:02 14,3 C 15,6 C 10,6 C 99 % 993,8 hPa 0,0 l/m 0 min 0 min 173 W/m 0,0 km/h (0 Bft) 100,00 %
19.10.2023 11:04 14,3 C 16,1 C 10,6 C 99 % 993,8 hPa 0,0 l/m 0 min 0 min 151 W/m 0,0 km/h (0 Bft) 100,00 %
19.10.2023 11:06 14,3 C 16,1 C 10,6 C 99 % 993,9 hPa 0,0 l/m 0 min 0 min 121 W/m 0,0 km/h (0 Bft) 100,00 %
19.10.2023 11:08 14,3 C 16,1 C 10,6 C 99 % 993,9 hPa 0,0 l/m 0 min 0 min 159 W/m 0,0 km/h (0 Bft) 97,87 %
19.10.2023 11:10 14,4 C 16,7 C 10,6 C 99 % 993,9 hPa 0,0 l/m 2 min 0 min 273 W/m 0,0 km/h (0 Bft) 100,00 %
19.10.2023 11:12 14,6 C 17,2 C 10,6 C 99 % 993,8 hPa 0,0 l/m 2 min 0 min 212 W/m 0,0 km/h (0 Bft) 97,87 %
19.10.2023 11:14 14,7 C 17,8 C 10,6 C 99 % 993,7 hPa 0,0 l/m 0 min 0 min 121 W/m 3,2 km/h (1 Bft) 100,00 %
19.10.2023 11:16 14,7 C 17,2 C 10,6 C 99 % 993,7 hPa 0,0 l/m 2 min 0 min 250 W/m 6,4 km/h (2 Bft) 100,00 %
19.10.2023 11:18 14,8 C 17,2 C 10,6 C 99 % 993,7 hPa 0,0 l/m 2 min 0 min 383 W/m 12,9 km/h (3 Bft) 97,87 %
19.10.2023 11:20 14,9 C 17,8 C 10,6 C 99 % 993,7 hPa 0,0 l/m 2 min 0 min 326 W/m 3,2 km/h (1 Bft) 100,00 %
19.10.2023 11:22 15,1 C 18,3 C 10,6 C 99 % 993,6 hPa 0,0 l/m 2 min 0 min 274 W/m 12,9 km/h (3 Bft) 100,00 %
19.10.2023 11:24 15,2 C 18,3 C 10,6 C 99 % 993,7 hPa 0,0 l/m 2 min 0 min 223 W/m 12,9 km/h (3 Bft) 100,00 %
19.10.2023 11:26 15,2 C 19,4 C 10,6 C 99 % 993,6 hPa 0,0 l/m 2 min 0 min 281 W/m 12,9 km/h (3 Bft) 100,00 %
19.10.2023 11:28 15,3 C 20,6 C 10,6 C 99 % 993,6 hPa 0,0 l/m 2 min 0 min 313 W/m 6,4 km/h (2 Bft) 100,00 %
19.10.2023 11:30 15,4 C 21,1 C 11,1 C 99 % 993,5 hPa 0,0 l/m 2 min 0 min 276 W/m 3,2 km/h (1 Bft) 100,00 %
19.10.2023 11:32 15,5 C 21,7 C 11,1 C 99 % 993,6 hPa 0,0 l/m 2 min 0 min 265 W/m 6,4 km/h (2 Bft) 100,00 %
19.10.2023 11:34 15,6 C 22,8 C 11,1 C 99 % 993,5 hPa 0,0 l/m 0 min 0 min 127 W/m 3,2 km/h (1 Bft) 100,00 %
19.10.2023 11:36 15,6 C 23,3 C 11,1 C 99 % 993,5 hPa 0,0 l/m 0 min 0 min 109 W/m 6,4 km/h (2 Bft) 100,00 %
19.10.2023 11:38 15,7 C 22,2 C 11,1 C 99 % 993,5 hPa 0,0 l/m 0 min 0 min 162 W/m 6,4 km/h (2 Bft) 97,87 %
19.10.2023 11:40 15,7 C 20,6 C 11,1 C 99 % 993,6 hPa 0,0 l/m 0 min 0 min 115 W/m 16,1 km/h (3 Bft) 100,00 %
19.10.2023 11:42 15,8 C 19,4 C 11,7 C 99 % 993,5 hPa 0,0 l/m 0 min 0 min 102 W/m 6,4 km/h (2 Bft) 100,00 %
19.10.2023 11:44 15,8 C 18,9 C 12,8 C 99 % 993,6 hPa 0,0 l/m 0 min 0 min 117 W/m 12,9 km/h (3 Bft) 100,00 %
19.10.2023 11:46 15,9 C 18,9 C 12,8 C 98 % 993,6 hPa 0,0 l/m 2 min 0 min 219 W/m 6,4 km/h (2 Bft) 100,00 %
19.10.2023 11:48 16,0 C 19,4 C 13,3 C 98 % 993,6 hPa 0,0 l/m 2 min 0 min 229 W/m 12,9 km/h (3 Bft) 100,00 %
19.10.2023 11:50 16,1 C 20,0 C 13,3 C 98 % 993,6 hPa 0,0 l/m 0 min 0 min 167 W/m 6,4 km/h (2 Bft) 100,00 %
19.10.2023 11:52 16,2 C 19,4 C 13,3 C 98 % 993,6 hPa 0,0 l/m 0 min 0 min 149 W/m 12,9 km/h (3 Bft) 100,00 %
19.10.2023 11:54 16,2 C 18,9 C 13,3 C 98 % 993,6 hPa 0,0 l/m 0 min 0 min 188 W/m 6,4 km/h (2 Bft) 100,00 %
19.10.2023 11:56 16,3 C 18,9 C 12,8 C 97 % 993,5 hPa 0,0 l/m 0 min 0 min 216 W/m 6,4 km/h (2 Bft) 100,00 %
19.10.2023 11:58 16,4 C 18,3 C 12,8 C 97 % 993,5 hPa 0,0 l/m 2 min 0 min 227 W/m 6,4 km/h (2 Bft) 100,00 %
19.10.2023 12:00 16,5 C 18,3 C 12,8 C 97 % 993,6 hPa 0,0 l/m 0 min 0 min 162 W/m 6,4 km/h (2 Bft) 100,00 %
19.10.2023 12:02 16,6 C 18,3 C 12,8 C 96 % 993,4 hPa 0,0 l/m 0 min 0 min 120 W/m 9,7 km/h (2 Bft) 100,00 %
19.10.2023 12:04 16,7 C 17,8 C 12,8 C 96 % 993,5 hPa 0,0 l/m 0 min 0 min 114 W/m 16,1 km/h (3 Bft) 100,00 %
19.10.2023 12:08 16,8 C 17,8 C 12,8 C 94 % 993,5 hPa 0,0 l/m 0 min 0 min 121 W/m 16,1 km/h (3 Bft) 98,95 %
19.10.2023 12:10 16,9 C 17,8 C 12,8 C 94 % 993,4 hPa 0,0 l/m 0 min 0 min 128 W/m 12,9 km/h (3 Bft) 100,00 %
19.10.2023 12:12 16,9 C 17,8 C 12,8 C 93 % 993,5 hPa 0,0 l/m 0 min 0 min 130 W/m 12,9 km/h (3 Bft) 100,00 %
19.10.2023 12:14 17,1 C 17,8 C 12,8 C 92 % 993,4 hPa 0,0 l/m 0 min 0 min 130 W/m 12,9 km/h (3 Bft) 97,87 %
19.10.2023 12:16 17,1 C 17,8 C 12,8 C 92 % 993,4 hPa 0,0 l/m 0 min 0 min 133 W/m 12,9 km/h (3 Bft) 97,87 %
19.10.2023 12:18 17,2 C 17,8 C 12,8 C 91 % 993,4 hPa 0,0 l/m 0 min 0 min 135 W/m 6,4 km/h (2 Bft) 97,87 %
19.10.2023 12:20 17,3 C 17,8 C 12,8 C 91 % 993,4 hPa 0,0 l/m 0 min 0 min 140 W/m 12,9 km/h (3 Bft) 97,87 %
19.10.2023 12:22 17,3 C 17,8 C 12,8 C 90 % 993,3 hPa 0,0 l/m 0 min 0 min 150 W/m 6,4 km/h (2 Bft) 97,83 %
19.10.2023 12:24 17,4 C 17,8 C 12,8 C 90 % 993,3 hPa 0,0 l/m 0 min 0 min 159 W/m 6,4 km/h (2 Bft) 95,74 %
19.10.2023 12:26 17,4 C 17,8 C 12,8 C 89 % 993,4 hPa 0,0 l/m 0 min 0 min 169 W/m 12,9 km/h (3 Bft) 95,74 %
19.10.2023 12:28 17,4 C 17,8 C 12,8 C 89 % 993,3 hPa 0,0 l/m 0 min 0 min 175 W/m 12,9 km/h (3 Bft) 95,74 %
19.10.2023 12:30 17,5 C 17,8 C 13,3 C 89 % 993,3 hPa 0,0 l/m 0 min 0 min 179 W/m 12,9 km/h (3 Bft) 97,87 %
19.10.2023 12:32 17,5 C 17,8 C 13,3 C 89 % 993,2 hPa 0,0 l/m 0 min 0 min 180 W/m 12,9 km/h (3 Bft) 93,62 %
19.10.2023 12:34 17,6 C 17,8 C 13,3 C 88 % 993,3 hPa 0,0 l/m 0 min 0 min 181 W/m 19,3 km/h (3 Bft) 95,74 %
19.10.2023 12:36 17,6 C 17,8 C 13,3 C 88 % 993,3 hPa 0,0 l/m 0 min 0 min 185 W/m 12,9 km/h (3 Bft) 95,74 %
19.10.2023 12:38 17,6 C 17,8 C 13,3 C 87 % 993,4 hPa 0,0 l/m 0 min 0 min 187 W/m 6,4 km/h (2 Bft) 93,48 %
19.10.2023 12:40 17,6 C 17,8 C 13,3 C 87 % 993,3 hPa 0,0 l/m 0 min 0 min 191 W/m 12,9 km/h (3 Bft) 93,62 %
19.10.2023 12:42 17,6 C 17,8 C 13,3 C 87 % 993,3 hPa 0,0 l/m 0 min 0 min 208 W/m 12,9 km/h (3 Bft) 93,62 %
19.10.2023 12:44 17,7 C 17,8 C 13,3 C 87 % 993,3 hPa 0,0 l/m 0 min 0 min 232 W/m 9,7 km/h (2 Bft) 95,74 %
19.10.2023 12:46 17,7 C 18,3 C 13,3 C 87 % 993,3 hPa 0,0 l/m 2 min 0 min 247 W/m 9,7 km/h (2 Bft) 89,36 %
19.10.2023 12:48 17,7 C 18,3 C 13,3 C 86 % 993,4 hPa 0,0 l/m 0 min 0 min 220 W/m 12,9 km/h (3 Bft) 95,74 %
19.10.2023 12:50 17,7 C 18,3 C 13,3 C 86 % 993,4 hPa 0,0 l/m 0 min 0 min 179 W/m 9,7 km/h (2 Bft) 95,74 %
19.10.2023 12:52 17,8 C 17,8 C 13,3 C 86 % 993,3 hPa 0,0 l/m 0 min 0 min 167 W/m 12,9 km/h (3 Bft) 97,83 %
19.10.2023 12:54 17,8 C 17,8 C 13,3 C 86 % 993,3 hPa 0,0 l/m 0 min 0 min 171 W/m 16,1 km/h (3 Bft) 97,87 %
19.10.2023 12:56 17,8 C 17,8 C 13,3 C 85 % 993,2 hPa 0,0 l/m 0 min 0 min 176 W/m 6,4 km/h (2 Bft) 97,87 %
19.10.2023 12:58 17,9 C 17,8 C 13,3 C 85 % 993,2 hPa 0,0 l/m 0 min 0 min 165 W/m 16,1 km/h (3 Bft) 95,74 %
19.10.2023 13:00 17,9 C 17,8 C 13,3 C 85 % 993,3 hPa 0,0 l/m 0 min 0 min 144 W/m 16,1 km/h (3 Bft) 93,62 %
19.10.2023 13:02 17,9 C 17,8 C 13,3 C 85 % 993,3 hPa 0,0 l/m 0 min 0 min 126 W/m 12,9 km/h (3 Bft) 93,62 %
19.10.2023 13:04 18,0 C 17,8 C 13,3 C 85 % 993,3 hPa 0,0 l/m 0 min 0 min 109 W/m 12,9 km/h (3 Bft) 97,96 %
19.10.2023 13:06 18,0 C 17,8 C 13,3 C 84 % 993,2 hPa 0,0 l/m 0 min 0 min 96 W/m 16,1 km/h (3 Bft) 93,75 %
19.10.2023 13:08 18,1 C 17,8 C 13,3 C 84 % 993,1 hPa 0,0 l/m 0 min 0 min 89 W/m 16,1 km/h (3 Bft) 93,48 %
19.10.2023 13:10 18,1 C 17,8 C 13,3 C 84 % 993,1 hPa 0,0 l/m 0 min 0 min 83 W/m 12,9 km/h (3 Bft) 100,00 %
19.10.2023 13:12 18,1 C 17,8 C 13,3 C 84 % 993,1 hPa 0,0 l/m 0 min 0 min 78 W/m 19,3 km/h (3 Bft) 97,83 %
19.10.2023 13:14 18,2 C 17,8 C 13,3 C 84 % 993,0 hPa 0,0 l/m 0 min 0 min 68 W/m 9,7 km/h (2 Bft) 97,87 %
19.10.2023 13:16 18,2 C 17,8 C 13,3 C 84 % 993,1 hPa 0,0 l/m 0 min 0 min 65 W/m 16,1 km/h (3 Bft) 93,62 %
19.10.2023 13:18 18,1 C 17,2 C 13,3 C 83 % 993,0 hPa 0,0 l/m 0 min 0 min 69 W/m 6,4 km/h (2 Bft) 97,87 %
19.10.2023 13:20 18,1 C 17,2 C 12,8 C 83 % 993,0 hPa 0,0 l/m 0 min 0 min 71 W/m 16,1 km/h (3 Bft) 97,87 %
19.10.2023 13:22 18,0 C 17,2 C 12,8 C 83 % 992,9 hPa 0,0 l/m 0 min 0 min 82 W/m 6,4 km/h (2 Bft) 95,74 %
19.10.2023 13:24 18,0 C 17,2 C 12,8 C 83 % 993,0 hPa 0,0 l/m 0 min 0 min 90 W/m 6,4 km/h (2 Bft) 95,74 %
19.10.2023 13:26 18,0 C 17,2 C 12,8 C 84 % 992,9 hPa 0,0 l/m 0 min 0 min 106 W/m 6,4 km/h (2 Bft) 93,48 %
19.10.2023 13:28 17,9 C 17,2 C 12,8 C 84 % 992,9 hPa 0,0 l/m 0 min 0 min 128 W/m 6,4 km/h (2 Bft) 97,87 %
19.10.2023 13:30 17,9 C 17,2 C 12,8 C 84 % 992,8 hPa 0,0 l/m 0 min 0 min 147 W/m 16,1 km/h (3 Bft) 97,87 %
19.10.2023 13:32 17,9 C 17,2 C 12,8 C 84 % 992,8 hPa 0,0 l/m 0 min 0 min 177 W/m 6,4 km/h (2 Bft) 97,87 %
19.10.2023 13:34 17,9 C 17,8 C 12,8 C 84 % 992,9 hPa 0,0 l/m 0 min 0 min 188 W/m 6,4 km/h (2 Bft) 95,74 %
19.10.2023 13:36 17,9 C 17,8 C 13,3 C 84 % 992,9 hPa 0,0 l/m 0 min 0 min 183 W/m 12,9 km/h (3 Bft) 97,87 %
19.10.2023 13:38 17,9 C 17,8 C 13,3 C 84 % 992,9 hPa 0,0 l/m 0 min 0 min 196 W/m 9,7 km/h (2 Bft) 97,87 %
19.10.2023 13:40 17,9 C 17,8 C 13,3 C 85 % 992,8 hPa 0,0 l/m 0 min 0 min 237 W/m 6,4 km/h (2 Bft) 97,83 %
19.10.2023 13:42 17,9 C 18,3 C 13,3 C 85 % 992,8 hPa 0,0 l/m 2 min 0 min 275 W/m 6,4 km/h (2 Bft) 97,87 %
19.10.2023 13:44 18,0 C 18,3 C 13,3 C 85 % 992,8 hPa 0,0 l/m 2 min 0 min 273 W/m 6,4 km/h (2 Bft) 97,87 %
19.10.2023 13:46 18,1 C 18,3 C 13,9 C 85 % 992,9 hPa 0,0 l/m 2 min 0 min 243 W/m 12,9 km/h (3 Bft) 97,87 %
19.10.2023 13:48 18,1 C 18,3 C 13,9 C 85 % 992,8 hPa 0,0 l/m 0 min 0 min 222 W/m 12,9 km/h (3 Bft) 97,87 %
19.10.2023 13:50 18,1 C 18,3 C 13,9 C 85 % 992,8 hPa 0,0 l/m 0 min 0 min 231 W/m 12,9 km/h (3 Bft) 97,87 %
19.10.2023 13:52 18,1 C 18,3 C 13,9 C 85 % 992,8 hPa 0,0 l/m 0 min 0 min 222 W/m 12,9 km/h (3 Bft) 100,00 %
19.10.2023 13:54 18,2 C 18,3 C 13,9 C 84 % 992,7 hPa 0,0 l/m 0 min 0 min 184 W/m 12,9 km/h (3 Bft) 100,00 %
19.10.2023 13:56 18,2 C 17,8 C 13,3 C 84 % 992,7 hPa 0,0 l/m 0 min 0 min 167 W/m 9,7 km/h (2 Bft) 100,00 %
19.10.2023 13:58 18,2 C 17,8 C 13,3 C 84 % 992,7 hPa 0,0 l/m 0 min 0 min 132 W/m 6,4 km/h (2 Bft) 95,74 %
19.10.2023 14:00 18,2 C 17,8 C 13,3 C 84 % 992,7 hPa 0,0 l/m 0 min 0 min 107 W/m 6,4 km/h (2 Bft) 100,00 %
19.10.2023 14:02 18,2 C 17,8 C 13,3 C 84 % 992,6 hPa 0,0 l/m 0 min 0 min 111 W/m 12,9 km/h (3 Bft) 100,00 %
19.10.2023 14:04 18,2 C 17,8 C 13,3 C 84 % 992,6 hPa 0,0 l/m 0 min 0 min 123 W/m 6,4 km/h (2 Bft) 97,87 %
19.10.2023 14:06 18,2 C 17,8 C 13,3 C 84 % 992,6 hPa 0,0 l/m 0 min 0 min 133 W/m 9,7 km/h (2 Bft) 100,00 %
19.10.2023 14:08 18,2 C 17,8 C 13,3 C 84 % 992,6 hPa 0,0 l/m 0 min 0 min 130 W/m 3,2 km/h (1 Bft) 97,87 %
19.10.2023 14:10 18,2 C 17,8 C 13,3 C 84 % 992,6 hPa 0,0 l/m 0 min 0 min 129 W/m 3,2 km/h (1 Bft) 100,00 %
19.10.2023 14:12 18,2 C 17,8 C 13,3 C 85 % 992,5 hPa 0,0 l/m 0 min 0 min 133 W/m 6,4 km/h (2 Bft) 100,00 %
19.10.2023 14:14 18,1 C 17,8 C 13,3 C 84 % 992,4 hPa 0,0 l/m 0 min 0 min 132 W/m 12,9 km/h (3 Bft) 100,00 %
19.10.2023 14:16 18,1 C 17,8 C 13,3 C 85 % 992,4 hPa 0,0 l/m 0 min 0 min 128 W/m 12,9 km/h (3 Bft) 100,00 %
19.10.2023 14:18 18,1 C 17,2 C 13,3 C 84 % 992,4 hPa 0,0 l/m 0 min 0 min 122 W/m 12,9 km/h (3 Bft) 97,87 %
19.10.2023 14:20 18,1 C 17,2 C 13,3 C 85 % 992,4 hPa 0,0 l/m 0 min 0 min 110 W/m 6,4 km/h (2 Bft) 100,00 %
19.10.2023 14:22 18,1 C 17,2 C 13,3 C 85 % 992,4 hPa 0,0 l/m 0 min 0 min 99 W/m 9,7 km/h (2 Bft) 97,87 %
19.10.2023 14:24 18,1 C 17,2 C 13,3 C 85 % 992,4 hPa 0,0 l/m 0 min 0 min 96 W/m 9,7 km/h (2 Bft) 97,87 %
19.10.2023 14:26 18,1 C 17,2 C 13,3 C 85 % 992,4 hPa 0,0 l/m 0 min 0 min 91 W/m 3,2 km/h (1 Bft) 97,87 %
19.10.2023 14:28 18,1 C 17,2 C 13,3 C 85 % 992,5 hPa 0,0 l/m 0 min 0 min 86 W/m 6,4 km/h (2 Bft) 97,87 %
19.10.2023 14:30 18,1 C 17,2 C 13,3 C 85 % 992,5 hPa 0,0 l/m 0 min 0 min 87 W/m 6,4 km/h (2 Bft) 97,87 %
19.10.2023 14:32 18,0 C 17,2 C 12,8 C 85 % 992,5 hPa 0,0 l/m 0 min 0 min 85 W/m 12,9 km/h (3 Bft) 97,87 %
19.10.2023 14:34 18,0 C 17,2 C 13,3 C 85 % 992,5 hPa 0,0 l/m 0 min 0 min 86 W/m 6,4 km/h (2 Bft) 97,87 %
19.10.2023 14:36 18,0 C 17,2 C 12,8 C 85 % 992,6 hPa 0,0 l/m 0 min 0 min 85 W/m 9,7 km/h (2 Bft) 97,83 %
19.10.2023 14:38 17,9 C 17,2 C 12,8 C 85 % 992,5 hPa 0,0 l/m 0 min 0 min 80 W/m 3,2 km/h (1 Bft) 97,87 %
19.10.2023 14:40 18,0 C 17,2 C 12,8 C 85 % 992,4 hPa 0,0 l/m 0 min 0 min 73 W/m 6,4 km/h (2 Bft) 95,74 %
19.10.2023 14:42 18,0 C 17,2 C 12,8 C 85 % 992,5 hPa 0,0 l/m 0 min 2 min 60 W/m 3,2 km/h (1 Bft) 97,87 %
19.10.2023 14:44 17,9 C 17,2 C 12,8 C 85 % 992,5 hPa 0,0 l/m 0 min 2 min 52 W/m 6,4 km/h (2 Bft) 97,87 %
19.10.2023 14:46 17,9 C 16,7 C 12,8 C 85 % 992,5 hPa 0,0 l/m 0 min 0 min 50 W/m 12,9 km/h (3 Bft) 97,87 %
19.10.2023 14:48 17,9 C 16,7 C 12,8 C 86 % 992,4 hPa 0,0 l/m 0 min 0 min 54 W/m 6,4 km/h (2 Bft) 97,83 %
19.10.2023 14:50 17,9 C 16,7 C 12,8 C 86 % 992,5 hPa 0,0 l/m 0 min 0 min 58 W/m 3,2 km/h (1 Bft) 97,87 %
19.10.2023 14:52 17,9 C 16,7 C 12,8 C 86 % 992,5 hPa 0,0 l/m 0 min 0 min 62 W/m 6,4 km/h (2 Bft) 97,87 %
19.10.2023 14:54 17,9 C 16,7 C 12,8 C 86 % 992,4 hPa 0,0 l/m 0 min 0 min 63 W/m 6,4 km/h (2 Bft) 95,74 %
19.10.2023 14:56 17,8 C 16,7 C 12,8 C 86 % 992,3 hPa 0,0 l/m 0 min 0 min 56 W/m 3,2 km/h (1 Bft) 97,87 %
19.10.2023 14:58 17,8 C 16,7 C 12,8 C 86 % 992,3 hPa 0,0 l/m 0 min 0 min 48 W/m 6,4 km/h (2 Bft) 100,00 %
19.10.2023 15:00 17,8 C 16,7 C 12,8 C 86 % 992,3 hPa 0,0 l/m 0 min 0 min 44 W/m 6,4 km/h (2 Bft) 97,87 %
19.10.2023 15:02 17,8 C 16,7 C 12,8 C 86 % 992,3 hPa 0,0 l/m 0 min 2 min 42 W/m 3,2 km/h (1 Bft) 97,87 %
19.10.2023 15:04 17,7 C 16,7 C 12,8 C 87 % 992,3 hPa 0,0 l/m 0 min 2 min 42 W/m 6,4 km/h (2 Bft) 97,96 %
19.10.2023 15:06 17,7 C 16,7 C 12,2 C 87 % 992,4 hPa 0,0 l/m 0 min 2 min 42 W/m 3,2 km/h (1 Bft) 97,87 %
19.10.2023 15:08 17,7 C 16,7 C 12,2 C 87 % 992,4 hPa 0,0 l/m 0 min 2 min 42 W/m 3,2 km/h (1 Bft) 95,74 %
19.10.2023 15:10 17,7 C 16,7 C 12,2 C 87 % 992,4 hPa 0,0 l/m 0 min 2 min 47 W/m 6,4 km/h (2 Bft) 93,62 %
19.10.2023 15:12 17,7 C 16,7 C 12,2 C 87 % 992,4 hPa 0,0 l/m 0 min 2 min 53 W/m 3,2 km/h (1 Bft) 97,87 %
19.10.2023 15:14 17,7 C 16,7 C 12,2 C 88 % 992,5 hPa 0,0 l/m 0 min 2 min 57 W/m 3,2 km/h (1 Bft) 95,74 %
19.10.2023 15:16 17,7 C 16,7 C 12,2 C 88 % 992,4 hPa 0,0 l/m 0 min 0 min 55 W/m 3,2 km/h (1 Bft) 97,83 %
19.10.2023 15:18 17,7 C 16,7 C 12,2 C 88 % 992,4 hPa 0,0 l/m 0 min 2 min 53 W/m 12,9 km/h (3 Bft) 97,87 %
19.10.2023 15:20 17,7 C 16,7 C 12,2 C 88 % 992,4 hPa 0,0 l/m 0 min 2 min 50 W/m 16,1 km/h (3 Bft) 97,87 %
19.10.2023 15:22 17,7 C 16,7 C 12,2 C 89 % 992,4 hPa 0,0 l/m 0 min 2 min 49 W/m 9,7 km/h (2 Bft) 97,87 %
19.10.2023 15:24 17,7 C 16,7 C 12,2 C 89 % 992,4 hPa 0,0 l/m 0 min 2 min 52 W/m 6,4 km/h (2 Bft) 97,87 %
19.10.2023 15:26 17,6 C 16,7 C 12,2 C 89 % 992,4 hPa 0,0 l/m 0 min 0 min 58 W/m 6,4 km/h (2 Bft) 95,74 %
19.10.2023 15:28 17,6 C 16,7 C 12,2 C 89 % 992,3 hPa 0,0 l/m 0 min 2 min 66 W/m 6,4 km/h (2 Bft) 97,87 %
19.10.2023 15:30 17,6 C 16,7 C 12,2 C 89 % 992,4 hPa 0,0 l/m 0 min 2 min 74 W/m 6,4 km/h (2 Bft) 97,83 %
19.10.2023 15:32 17,6 C 16,7 C 12,2 C 90 % 992,3 hPa 0,0 l/m 0 min 2 min 79 W/m 9,7 km/h (2 Bft) 97,87 %
19.10.2023 15:34 17,5 C 16,7 C 11,7 C 90 % 992,3 hPa 0,0 l/m 0 min 2 min 84 W/m 6,4 km/h (2 Bft) 97,87 %
19.10.2023 15:36 17,4 C 16,7 C 11,7 C 90 % 992,3 hPa 0,0 l/m 0 min 0 min 89 W/m 12,9 km/h (3 Bft) 97,87 %
19.10.2023 15:38 17,4 C 16,7 C 11,7 C 90 % 992,3 hPa 0,0 l/m 0 min 2 min 99 W/m 9,7 km/h (2 Bft) 97,87 %
19.10.2023 15:40 17,4 C 16,7 C 11,7 C 90 % 992,2 hPa 0,0 l/m 0 min 2 min 107 W/m 6,4 km/h (2 Bft) 97,87 %
19.10.2023 15:42 17,3 C 16,7 C 11,7 C 90 % 992,2 hPa 0,0 l/m 0 min 2 min 114 W/m 12,9 km/h (3 Bft) 95,74 %
19.10.2023 15:44 17,3 C 16,7 C 11,7 C 90 % 992,1 hPa 0,0 l/m 0 min 0 min 118 W/m 6,4 km/h (2 Bft) 95,65 %
19.10.2023 15:46 17,3 C 16,7 C 11,7 C 90 % 992,1 hPa 0,0 l/m 0 min 2 min 112 W/m 3,2 km/h (1 Bft) 97,87 %
19.10.2023 15:48 17,3 C 16,7 C 11,7 C 91 % 992,0 hPa 0,0 l/m 0 min 2 min 98 W/m 12,9 km/h (3 Bft) 97,87 %
19.10.2023 15:50 17,3 C 16,7 C 11,7 C 91 % 992,1 hPa 0,0 l/m 0 min 2 min 89 W/m 12,9 km/h (3 Bft) 100,00 %
19.10.2023 15:52 17,3 C 16,7 C 12,2 C 91 % 992,0 hPa 0,0 l/m 0 min 0 min 89 W/m 6,4 km/h (2 Bft) 97,87 %
19.10.2023 15:54 17,3 C 16,7 C 12,2 C 91 % 992,0 hPa 0,0 l/m 0 min 2 min 93 W/m 6,4 km/h (2 Bft) 97,87 %
19.10.2023 15:56 17,3 C 16,7 C 12,2 C 91 % 992,0 hPa 0,0 l/m 0 min 2 min 96 W/m 16,1 km/h (3 Bft) 95,74 %
19.10.2023 15:58 17,2 C 16,7 C 12,2 C 91 % 992,0 hPa 0,0 l/m 0 min 2 min 98 W/m 6,4 km/h (2 Bft) 95,65 %
19.10.2023 16:00 17,2 C 16,7 C 12,2 C 91 % 992,0 hPa 0,0 l/m 0 min 2 min 100 W/m 9,7 km/h (2 Bft) 95,74 %
19.10.2023 16:02 17,2 C 16,7 C 12,2 C 91 % 992,0 hPa 0,0 l/m 0 min 2 min 103 W/m 9,7 km/h (2 Bft) 97,87 %
19.10.2023 16:04 17,2 C 16,7 C 12,2 C 91 % 991,9 hPa 0,0 l/m 0 min 2 min 108 W/m 6,4 km/h (2 Bft) 97,87 %
19.10.2023 16:06 17,2 C 16,7 C 12,2 C 91 % 991,9 hPa 0,0 l/m 0 min 2 min 108 W/m 19,3 km/h (3 Bft) 95,74 %
19.10.2023 16:08 17,1 C 16,7 C 11,7 C 91 % 991,8 hPa 0,0 l/m 0 min 2 min 100 W/m 9,7 km/h (2 Bft) 97,87 %
19.10.2023 16:10 17,1 C 16,7 C 11,7 C 91 % 991,8 hPa 0,0 l/m 0 min 2 min 84 W/m 6,4 km/h (2 Bft) 97,87 %
19.10.2023 16:12 17,1 C 16,7 C 11,7 C 91 % 991,8 hPa 0,0 l/m 0 min 0 min 70 W/m 6,4 km/h (2 Bft) 95,65 %
19.10.2023 16:14 17,1 C 16,1 C 11,7 C 92 % 991,8 hPa 0,0 l/m 0 min 2 min 68 W/m 6,4 km/h (2 Bft) 97,87 %
19.10.2023 16:16 17,1 C 16,1 C 11,7 C 92 % 991,8 hPa 0,0 l/m 0 min 2 min 77 W/m 6,4 km/h (2 Bft) 97,87 %
19.10.2023 16:18 17,1 C 16,1 C 11,7 C 92 % 991,8 hPa 0,0 l/m 0 min 2 min 91 W/m 6,4 km/h (2 Bft) 93,62 %
19.10.2023 16:20 17,1 C 16,1 C 11,7 C 92 % 991,7 hPa 0,0 l/m 0 min 2 min 97 W/m 6,4 km/h (2 Bft) 95,74 %
19.10.2023 16:22 17,1 C 16,1 C 11,7 C 92 % 991,7 hPa 0,0 l/m 0 min 0 min 88 W/m 12,9 km/h (3 Bft) 95,74 %
19.10.2023 16:24 17,0 C 16,1 C 11,7 C 92 % 991,6 hPa 0,0 l/m 0 min 0 min 76 W/m 6,4 km/h (2 Bft) 89,36 %
19.10.2023 16:26 17,0 C 16,1 C 11,7 C 93 % 991,6 hPa 0,0 l/m 0 min 0 min 65 W/m 9,7 km/h (2 Bft) 95,65 %
19.10.2023 16:28 17,0 C 16,1 C 11,7 C 93 % 991,6 hPa 0,0 l/m 0 min 2 min 55 W/m 9,7 km/h (2 Bft) 93,62 %
19.10.2023 16:30 16,9 C 16,1 C 12,2 C 92 % 991,5 hPa 0,0 l/m 0 min 0 min 47 W/m 6,4 km/h (2 Bft) 91,49 %
19.10.2023 16:32 16,9 C 16,1 C 11,7 C 93 % 991,5 hPa 0,0 l/m 0 min 0 min 46 W/m 16,1 km/h (3 Bft) 95,74 %
19.10.2023 16:34 16,9 C 16,1 C 11,7 C 93 % 991,4 hPa 0,0 l/m 0 min 0 min 47 W/m 3,2 km/h (1 Bft) 95,74 %
19.10.2023 16:36 16,9 C 16,1 C 11,7 C 93 % 991,4 hPa 0,0 l/m 0 min 0 min 48 W/m 12,9 km/h (3 Bft) 95,74 %
19.10.2023 16:38 16,9 C 16,1 C 11,7 C 93 % 991,3 hPa 0,0 l/m 0 min 2 min 52 W/m 6,4 km/h (2 Bft) 97,87 %
19.10.2023 16:40 16,9 C 16,1 C 11,7 C 93 % 991,3 hPa 0,0 l/m 0 min 2 min 61 W/m 6,4 km/h (2 Bft) 100,00 %
19.10.2023 16:42 16,8 C 16,1 C 11,7 C 93 % 991,3 hPa 0,0 l/m 0 min 0 min 74 W/m 9,7 km/h (2 Bft) 95,74 %
19.10.2023 16:44 16,8 C 16,1 C 12,2 C 93 % 991,2 hPa 0,0 l/m 0 min 0 min 85 W/m 3,2 km/h (1 Bft) 97,87 %
19.10.2023 16:46 16,8 C 16,1 C 12,2 C 93 % 991,2 hPa 0,0 l/m 0 min 0 min 86 W/m 12,9 km/h (3 Bft) 97,87 %
19.10.2023 16:48 16,8 C 16,1 C 12,2 C 93 % 991,1 hPa 0,0 l/m 0 min 2 min 81 W/m 6,4 km/h (2 Bft) 93,62 %
19.10.2023 16:50 16,8 C 16,1 C 11,7 C 93 % 991,1 hPa 0,0 l/m 0 min 2 min 74 W/m 6,4 km/h (2 Bft) 97,87 %
19.10.2023 16:52 16,8 C 16,1 C 11,7 C 94 % 991,1 hPa 0,0 l/m 0 min 0 min 64 W/m 6,4 km/h (2 Bft) 97,87 %
19.10.2023 16:54 16,7 C 16,1 C 11,7 C 94 % 991,1 hPa 0,0 l/m 0 min 0 min 54 W/m 12,9 km/h (3 Bft) 97,83 %
19.10.2023 16:56 16,7 C 15,6 C 11,7 C 94 % 991,1 hPa 0,0 l/m 0 min 0 min 49 W/m 12,9 km/h (3 Bft) 97,87 %
19.10.2023 16:58 16,7 C 15,6 C 11,7 C 94 % 991,1 hPa 0,0 l/m 0 min 0 min 48 W/m 16,1 km/h (3 Bft) 100,00 %
19.10.2023 17:00 16,6 C 15,6 C 11,7 C 94 % 991,0 hPa 0,0 l/m 0 min 0 min 53 W/m 6,4 km/h (2 Bft) 97,87 %
19.10.2023 17:02 16,6 C 15,6 C 11,7 C 94 % 991,0 hPa 0,0 l/m 0 min 0 min 61 W/m 6,4 km/h (2 Bft) 97,87 %
19.10.2023 17:04 16,6 C 15,6 C 11,7 C 94 % 990,9 hPa 0,0 l/m 0 min 0 min 72 W/m 6,4 km/h (2 Bft) 100,00 %
19.10.2023 17:06 16,6 C 16,1 C 12,2 C 94 % 990,9 hPa 0,0 l/m 0 min 0 min 86 W/m 6,4 km/h (2 Bft) 98,18 %
19.10.2023 17:08 16,6 C 16,1 C 12,2 C 94 % 990,9 hPa 0,0 l/m 0 min 0 min 87 W/m 6,4 km/h (2 Bft) 100,00 %
19.10.2023 17:10 16,6 C 16,1 C 12,2 C 94 % 990,9 hPa 0,0 l/m 0 min 0 min 86 W/m 12,9 km/h (3 Bft) 100,00 %
19.10.2023 17:16 16,6 C 16,1 C 12,2 C 94 % 990,8 hPa 0,0 l/m 5 min 0 min 112 W/m 6,4 km/h (2 Bft) 98,00 %
19.10.2023 17:18 16,6 C 16,1 C 12,2 C 95 % 990,8 hPa 0,0 l/m 2 min 0 min 100 W/m 12,9 km/h (3 Bft) 100,00 %
19.10.2023 17:20 16,6 C 16,1 C 12,2 C 95 % 990,8 hPa 0,0 l/m 0 min 0 min 79 W/m 6,4 km/h (2 Bft) 100,00 %
19.10.2023 17:22 16,6 C 16,1 C 12,2 C 95 % 990,7 hPa 0,0 l/m 0 min 0 min 74 W/m 6,4 km/h (2 Bft) 100,00 %
19.10.2023 17:24 16,6 C 16,1 C 12,2 C 95 % 990,7 hPa 0,0 l/m 2 min 0 min 82 W/m 6,4 km/h (2 Bft) 100,00 %
19.10.2023 17:26 16,6 C 16,1 C 12,2 C 95 % 990,7 hPa 0,0 l/m 2 min 0 min 93 W/m 9,7 km/h (2 Bft) 100,00 %
19.10.2023 17:28 16,6 C 16,1 C 12,2 C 95 % 990,7 hPa 0,0 l/m 2 min 0 min 100 W/m 3,2 km/h (1 Bft) 100,00 %
19.10.2023 17:30 16,6 C 16,7 C 12,2 C 95 % 990,8 hPa 0,0 l/m 2 min 0 min 99 W/m 3,2 km/h (1 Bft) 100,00 %
19.10.2023 17:32 16,7 C 16,7 C 12,2 C 95 % 990,8 hPa 0,0 l/m 2 min 0 min 88 W/m 3,2 km/h (1 Bft) 97,87 %
19.10.2023 17:34 16,7 C 16,7 C 12,2 C 95 % 990,8 hPa 0,0 l/m 2 min 0 min 73 W/m 6,4 km/h (2 Bft) 100,00 %
19.10.2023 17:36 16,7 C 16,1 C 12,2 C 95 % 990,7 hPa 0,0 l/m 0 min 0 min 58 W/m 3,2 km/h (1 Bft) 97,87 %
19.10.2023 17:38 16,7 C 16,1 C 12,2 C 95 % 990,6 hPa 0,0 l/m 0 min 0 min 51 W/m 6,4 km/h (2 Bft) 100,00 %
19.10.2023 17:40 16,7 C 16,1 C 12,2 C 95 % 990,6 hPa 0,0 l/m 0 min 0 min 48 W/m 9,7 km/h (2 Bft) 97,87 %
19.10.2023 17:42 16,7 C 16,1 C 12,2 C 95 % 990,6 hPa 0,0 l/m 0 min 0 min 53 W/m 6,4 km/h (2 Bft) 100,00 %
19.10.2023 17:44 16,6 C 16,1 C 12,2 C 95 % 990,5 hPa 0,0 l/m 0 min 0 min 54 W/m 6,4 km/h (2 Bft) 100,00 %
19.10.2023 17:46 16,6 C 16,1 C 12,2 C 95 % 990,4 hPa 0,0 l/m 2 min 0 min 54 W/m 6,4 km/h (2 Bft) 100,00 %
19.10.2023 17:48 16,6 C 16,1 C 12,2 C 95 % 990,4 hPa 0,0 l/m 0 min 0 min 48 W/m 6,4 km/h (2 Bft) 100,00 %
19.10.2023 17:50 16,6 C 16,1 C 12,2 C 95 % 990,3 hPa 0,0 l/m 0 min 0 min 40 W/m 6,4 km/h (2 Bft) 95,74 %
19.10.2023 17:52 16,6 C 16,1 C 12,2 C 95 % 990,3 hPa 0,0 l/m 0 min 0 min 36 W/m 3,2 km/h (1 Bft) 97,87 %
19.10.2023 17:54 16,6 C 15,6 C 12,2 C 95 % 990,4 hPa 0,0 l/m 0 min 0 min 39 W/m 3,2 km/h (1 Bft) 97,87 %
19.10.2023 17:56 16,6 C 15,6 C 12,2 C 95 % 990,4 hPa 0,0 l/m 0 min 0 min 39 W/m 6,4 km/h (2 Bft) 97,87 %
19.10.2023 17:58 16,6 C 15,6 C 12,2 C 95 % 990,4 hPa 0,0 l/m 2 min 0 min 42 W/m 0,0 km/h (0 Bft) 97,83 %
19.10.2023 18:00 16,6 C 15,6 C 12,2 C 95 % 990,3 hPa 0,0 l/m 2 min 0 min 38 W/m 3,2 km/h (1 Bft) 97,87 %
19.10.2023 18:02 16,6 C 15,6 C 12,2 C 95 % 990,4 hPa 0,0 l/m 2 min 0 min 36 W/m 6,4 km/h (2 Bft) 97,87 %
19.10.2023 18:04 16,6 C 15,6 C 12,2 C 95 % 990,3 hPa 0,0 l/m 2 min 0 min 37 W/m 6,4 km/h (2 Bft) 94,00 %
19.10.2023 18:08 16,6 C 15,6 C 12,2 C 95 % 990,2 hPa 0,0 l/m 0 min 0 min 24 W/m 6,4 km/h (2 Bft) 96,84 %
19.10.2023 18:10 16,5 C 15,6 C 11,7 C 95 % 990,2 hPa 0,0 l/m 0 min 0 min 16 W/m 16,1 km/h (3 Bft) 95,65 %
19.10.2023 18:12 16,5 C 15,6 C 11,7 C 95 % 990,2 hPa 0,0 l/m 0 min 0 min 12 W/m 3,2 km/h (1 Bft) 97,22 %
19.10.2023 18:14 16,5 C 15,6 C 11,7 C 95 % 990,1 hPa 0,0 l/m 0 min 0 min 11 W/m 6,4 km/h (2 Bft) 95,65 %
19.10.2023 18:16 16,4 C 15,6 C 11,7 C 95 % 990,2 hPa 0,0 l/m 0 min 0 min 8 W/m 6,4 km/h (2 Bft) 93,62 %
19.10.2023 18:18 16,4 C 15,6 C 11,7 C 95 % 990,2 hPa 0,0 l/m 0 min 0 min 7 W/m 3,2 km/h (1 Bft) 91,49 %
19.10.2023 18:20 16,4 C 15,6 C 11,7 C 95 % 990,2 hPa 0,0 l/m 0 min 0 min 5 W/m 6,4 km/h (2 Bft) 93,62 %
19.10.2023 18:22 16,4 C 15,6 C 11,7 C 95 % 990,2 hPa 0,0 l/m 0 min 0 min 5 W/m 6,4 km/h (2 Bft) 89,36 %
19.10.2023 18:24 16,3 C 15,0 C 11,7 C 95 % 990,2 hPa 0,0 l/m 0 min 0 min 5 W/m 6,4 km/h (2 Bft) 91,49 %
19.10.2023 18:26 16,3 C 15,0 C 11,7 C 95 % 990,1 hPa 0,0 l/m 0 min 0 min 4 W/m 6,4 km/h (2 Bft) 89,36 %
19.10.2023 18:28 16,3 C 15,0 C 11,7 C 95 % 990,2 hPa 0,0 l/m 0 min 0 min 0 W/m 3,2 km/h (1 Bft) 93,48 %
19.10.2023 18:30 16,2 C 15,0 C 11,7 C 95 % 990,3 hPa 0,0 l/m 0 min 0 min 0 W/m 6,4 km/h (2 Bft) 95,74 %
19.10.2023 18:32 16,2 C 15,0 C 11,7 C 95 % 990,3 hPa 0,0 l/m 0 min 0 min 0 W/m 6,4 km/h (2 Bft) 93,62 %
19.10.2023 18:34 16,2 C 15,0 C 11,7 C 96 % 990,3 hPa 0,0 l/m 0 min 0 min 0 W/m 6,4 km/h (2 Bft) 94,34 %
19.10.2023 18:36 16,2 C 15,0 C 11,7 C 96 % 990,3 hPa 0,0 l/m 0 min 0 min 0 W/m 6,4 km/h (2 Bft) 92,68 %
19.10.2023 18:38 16,1 C 15,0 C 11,7 C 96 % 990,3 hPa 0,0 l/m 0 min 0 min 0 W/m 9,7 km/h (2 Bft) 93,62 %
19.10.2023 18:40 16,1 C 15,0 C 11,1 C 95 % 990,3 hPa 0,0 l/m 0 min 0 min 0 W/m 6,4 km/h (2 Bft) 93,62 %
19.10.2023 18:42 16,1 C 15,0 C 11,1 C 95 % 990,3 hPa 0,0 l/m 0 min 0 min 0 W/m 6,4 km/h (2 Bft) 95,65 %
19.10.2023 18:44 16,1 C 15,0 C 11,1 C 95 % 990,3 hPa 0,0 l/m 0 min 0 min 0 W/m 3,2 km/h (1 Bft) 95,74 %
19.10.2023 18:46 16,0 C 15,0 C 11,1 C 95 % 990,3 hPa 0,0 l/m 0 min 0 min 0 W/m 9,7 km/h (2 Bft) 95,74 %
19.10.2023 18:48 16,0 C 15,0 C 11,1 C 95 % 990,4 hPa 0,0 l/m 0 min 0 min 0 W/m 3,2 km/h (1 Bft) 93,62 %
19.10.2023 18:50 15,9 C 14,4 C 11,1 C 96 % 990,4 hPa 0,0 l/m 0 min 0 min 0 W/m 6,4 km/h (2 Bft) 97,87 %
19.10.2023 18:52 15,9 C 14,4 C 11,1 C 96 % 990,4 hPa 0,0 l/m 0 min 0 min 0 W/m 3,2 km/h (1 Bft) 93,62 %
19.10.2023 18:54 15,9 C 14,4 C 11,1 C 96 % 990,4 hPa 0,0 l/m 0 min 0 min 0 W/m 6,4 km/h (2 Bft) 95,74 %
19.10.2023 18:56 15,9 C 14,4 C 11,1 C 96 % 990,3 hPa 0,0 l/m 0 min 0 min 0 W/m 3,2 km/h (1 Bft) 95,65 %
19.10.2023 18:58 15,8 C 14,4 C 11,1 C 96 % 990,4 hPa 0,0 l/m 0 min 0 min 0 W/m 3,2 km/h (1 Bft) 95,74 %
19.10.2023 19:00 15,8 C 14,4 C 11,1 C 96 % 990,4 hPa 0,0 l/m 0 min 0 min 0 W/m 3,2 km/h (1 Bft) 97,87 %
19.10.2023 19:02 15,8 C 14,4 C 11,1 C 96 % 990,3 hPa 0,0 l/m 0 min 0 min 0 W/m 6,4 km/h (2 Bft) 100,00 %
19.10.2023 19:04 15,8 C 14,4 C 11,1 C 96 % 990,3 hPa 0,0 l/m 0 min 0 min 0 W/m 3,2 km/h (1 Bft) 98,00 %
19.10.2023 19:06 15,8 C 14,4 C 11,1 C 96 % 990,3 hPa 0,0 l/m 0 min 0 min 0 W/m 6,4 km/h (2 Bft) 100,00 %
19.10.2023 19:08 15,7 C 14,4 C 11,1 C 96 % 990,3 hPa 0,0 l/m 0 min 0 min 0 W/m 6,4 km/h (2 Bft) 100,00 %
19.10.2023 19:10 15,7 C 14,4 C 11,1 C 96 % 990,3 hPa 0,0 l/m 0 min 0 min 0 W/m 3,2 km/h (1 Bft) 100,00 %
19.10.2023 19:12 15,7 C 14,4 C 11,1 C 96 % 990,2 hPa 0,0 l/m 0 min 0 min 0 W/m 3,2 km/h (1 Bft) 100,00 %
19.10.2023 19:14 15,7 C 14,4 C 11,1 C 96 % 990,1 hPa 0,0 l/m 0 min 0 min 0 W/m 3,2 km/h (1 Bft) 100,00 %
19.10.2023 19:16 15,7 C 14,4 C 11,1 C 96 % 990,1 hPa 0,0 l/m 0 min 0 min 0 W/m 6,4 km/h (2 Bft) 100,00 %
19.10.2023 19:18 15,7 C 14,4 C 11,1 C 96 % 990,1 hPa 0,0 l/m 0 min 0 min 0 W/m 3,2 km/h (1 Bft) 97,87 %
19.10.2023 19:20 15,6 C 14,4 C 11,1 C 96 % 990,1 hPa 0,0 l/m 0 min 0 min 0 W/m 3,2 km/h (1 Bft) 100,00 %
19.10.2023 19:22 15,6 C 14,4 C 11,1 C 96 % 990,1 hPa 0,0 l/m 0 min 0 min 0 W/m 3,2 km/h (1 Bft) 100,00 %
19.10.2023 19:24 15,6 C 14,4 C 11,1 C 96 % 990,1 hPa 0,0 l/m 0 min 0 min 0 W/m 6,4 km/h (2 Bft) 100,00 %
19.10.2023 19:26 15,6 C 14,4 C 11,1 C 96 % 990,0 hPa 0,0 l/m 0 min 0 min 0 W/m 3,2 km/h (1 Bft) 100,00 %
19.10.2023 19:28 15,6 C 14,4 C 11,1 C 96 % 990,0 hPa 0,0 l/m 0 min 0 min 0 W/m 3,2 km/h (1 Bft) 100,00 %
19.10.2023 19:30 15,6 C 14,4 C 11,1 C 96 % 990,0 hPa 0,0 l/m 0 min 0 min 0 W/m 6,4 km/h (2 Bft) 100,00 %
19.10.2023 19:32 15,6 C 14,4 C 11,1 C 96 % 990,1 hPa 0,0 l/m 0 min 0 min 0 W/m 6,4 km/h (2 Bft) 100,00 %
19.10.2023 19:34 15,5 C 14,4 C 11,1 C 96 % 990,1 hPa 0,0 l/m 0 min 0 min 0 W/m 6,4 km/h (2 Bft) 97,87 %
19.10.2023 19:36 15,5 C 14,4 C 11,1 C 96 % 990,0 hPa 0,0 l/m 0 min 0 min 0 W/m 12,9 km/h (3 Bft) 100,00 %
19.10.2023 19:38 15,5 C 14,4 C 11,1 C 96 % 989,9 hPa 0,0 l/m 0 min 0 min 0 W/m 3,2 km/h (1 Bft) 100,00 %
19.10.2023 19:40 15,4 C 14,4 C 11,1 C 96 % 989,9 hPa 0,0 l/m 0 min 0 min 0 W/m 12,9 km/h (3 Bft) 97,87 %
19.10.2023 19:42 15,4 C 14,4 C 11,1 C 96 % 989,9 hPa 0,0 l/m 0 min 0 min 0 W/m 3,2 km/h (1 Bft) 100,00 %
19.10.2023 19:44 15,4 C 14,4 C 11,1 C 96 % 989,9 hPa 0,0 l/m 0 min 0 min 0 W/m 3,2 km/h (1 Bft) 100,00 %
19.10.2023 19:46 15,4 C 14,4 C 11,1 C 96 % 990,0 hPa 0,0 l/m 0 min 0 min 0 W/m 3,2 km/h (1 Bft) 97,87 %
19.10.2023 19:48 15,4 C 14,4 C 11,1 C 96 % 990,1 hPa 0,0 l/m 0 min 0 min 0 W/m 0,0 km/h (0 Bft) 100,00 %
19.10.2023 19:50 15,4 C 14,4 C 11,1 C 96 % 990,1 hPa 0,0 l/m 0 min 0 min 0 W/m 0,0 km/h (0 Bft) 100,00 %
19.10.2023 19:52 15,3 C 14,4 C 11,1 C 96 % 990,1 hPa 0,0 l/m 0 min 0 min 0 W/m 3,2 km/h (1 Bft) 97,87 %
19.10.2023 19:54 15,3 C 14,4 C 11,1 C 96 % 990,1 hPa 0,0 l/m 0 min 0 min 0 W/m 3,2 km/h (1 Bft) 97,87 %
19.10.2023 19:56 15,3 C 14,4 C 11,1 C 96 % 990,1 hPa 0,0 l/m 0 min 0 min 0 W/m 3,2 km/h (1 Bft) 100,00 %
19.10.2023 19:58 15,3 C 14,4 C 11,1 C 97 % 990,1 hPa 0,0 l/m 0 min 0 min 0 W/m 6,4 km/h (2 Bft) 97,87 %
19.10.2023 20:00 15,3 C 14,4 C 11,1 C 97 % 990,1 hPa 0,0 l/m 0 min 0 min 0 W/m 3,2 km/h (1 Bft) 100,00 %
19.10.2023 20:02 15,3 C 14,4 C 11,1 C 97 % 990,1 hPa 0,0 l/m 0 min 0 min 0 W/m 6,4 km/h (2 Bft) 100,00 %
19.10.2023 20:04 15,3 C 14,4 C 11,1 C 97 % 990,1 hPa 0,0 l/m 0 min 0 min 0 W/m 3,2 km/h (1 Bft) 97,96 %
19.10.2023 20:06 15,2 C 14,4 C 10,6 C 97 % 990,1 hPa 0,0 l/m 0 min 0 min 0 W/m 6,4 km/h (2 Bft) 98,31 %
19.10.2023 20:08 15,2 C 14,4 C 10,6 C 97 % 990,0 hPa 0,0 l/m 0 min 0 min 0 W/m 3,2 km/h (1 Bft) 97,22 %
19.10.2023 20:10 15,2 C 13,9 C 10,6 C 97 % 990,0 hPa 0,0 l/m 0 min 0 min 0 W/m 0,0 km/h (0 Bft) 97,87 %
19.10.2023 20:12 15,2 C 13,9 C 10,6 C 97 % 989,9 hPa 0,0 l/m 0 min 0 min 0 W/m 3,2 km/h (1 Bft) 97,87 %
19.10.2023 20:14 15,2 C 13,9 C 10,6 C 97 % 989,8 hPa 0,0 l/m 0 min 0 min 0 W/m 6,4 km/h (2 Bft) 97,87 %
19.10.2023 20:16 15,2 C 13,9 C 10,6 C 97 % 989,8 hPa 0,0 l/m 0 min 0 min 0 W/m 3,2 km/h (1 Bft) 97,83 %
19.10.2023 20:18 15,1 C 13,9 C 10,6 C 97 % 989,8 hPa 0,0 l/m 0 min 0 min 0 W/m 3,2 km/h (1 Bft) 97,87 %
19.10.2023 20:20 15,1 C 13,9 C 10,6 C 97 % 989,8 hPa 0,0 l/m 0 min 0 min 0 W/m 6,4 km/h (2 Bft) 97,87 %
19.10.2023 20:22 15,1 C 13,9 C 10,6 C 97 % 989,8 hPa 0,0 l/m 0 min 0 min 0 W/m 6,4 km/h (2 Bft) 97,87 %
19.10.2023 20:24 15,1 C 13,9 C 10,6 C 97 % 989,7 hPa 0,0 l/m 0 min 0 min 0 W/m 3,2 km/h (1 Bft) 95,74 %
19.10.2023 20:26 15,1 C 13,9 C 10,6 C 97 % 989,6 hPa 0,0 l/m 0 min 0 min 0 W/m 3,2 km/h (1 Bft) 97,87 %
19.10.2023 20:28 15,1 C 13,9 C 10,6 C 97 % 989,7 hPa 0,0 l/m 0 min 0 min 0 W/m 3,2 km/h (1 Bft) 97,87 %
19.10.2023 20:30 15,1 C 13,9 C 10,6 C 97 % 989,6 hPa 0,0 l/m 0 min 0 min 0 W/m 3,2 km/h (1 Bft) 97,83 %
19.10.2023 20:32 15,1 C 13,9 C 10,6 C 97 % 989,5 hPa 0,0 l/m 0 min 0 min 0 W/m 6,4 km/h (2 Bft) 97,87 %
19.10.2023 20:34 15,1 C 13,9 C 10,6 C 97 % 989,6 hPa 0,0 l/m 0 min 0 min 0 W/m 3,2 km/h (1 Bft) 97,87 %
19.10.2023 20:36 15,1 C 13,9 C 10,6 C 97 % 989,6 hPa 0,0 l/m 0 min 0 min 0 W/m 3,2 km/h (1 Bft) 95,74 %
19.10.2023 20:38 15,1 C 13,9 C 10,6 C 97 % 989,7 hPa 0,0 l/m 0 min 0 min 0 W/m 6,4 km/h (2 Bft) 100,00 %
19.10.2023 20:40 15,0 C 13,9 C 10,6 C 97 % 989,6 hPa 0,0 l/m 0 min 0 min 0 W/m 3,2 km/h (1 Bft) 97,87 %
19.10.2023 20:42 15,0 C 13,9 C 10,6 C 97 % 989,6 hPa 0,0 l/m 0 min 0 min 0 W/m 3,2 km/h (1 Bft) 100,00 %
19.10.2023 20:44 15,0 C 13,9 C 10,6 C 97 % 989,6 hPa 0,0 l/m 0 min 0 min 0 W/m 6,4 km/h (2 Bft) 100,00 %
19.10.2023 20:46 15,0 C 13,9 C 10,6 C 97 % 989,6 hPa 0,0 l/m 0 min 0 min 0 W/m 3,2 km/h (1 Bft) 97,87 %
19.10.2023 20:48 14,9 C 13,9 C 10,6 C 97 % 989,6 hPa 0,0 l/m 0 min 0 min 0 W/m 12,9 km/h (3 Bft) 97,87 %
19.10.2023 20:50 14,9 C 13,9 C 10,6 C 97 % 989,6 hPa 0,0 l/m 0 min 0 min 0 W/m 3,2 km/h (1 Bft) 97,87 %
19.10.2023 20:52 14,9 C 13,9 C 10,6 C 97 % 989,5 hPa 0,0 l/m 0 min 0 min 0 W/m 3,2 km/h (1 Bft) 97,87 %
19.10.2023 20:54 14,9 C 13,9 C 10,6 C 97 % 989,5 hPa 0,0 l/m 0 min 0 min 0 W/m 3,2 km/h (1 Bft) 97,87 %
19.10.2023 20:56 14,9 C 13,9 C 10,6 C 97 % 989,4 hPa 0,0 l/m 0 min 0 min 0 W/m 3,2 km/h (1 Bft) 93,62 %
19.10.2023 20:58 14,9 C 13,9 C 10,6 C 97 % 989,4 hPa 0,0 l/m 0 min 0 min 0 W/m 0,0 km/h (0 Bft) 95,65 %
19.10.2023 21:00 14,9 C 13,9 C 10,6 C 97 % 989,3 hPa 0,0 l/m 0 min 0 min 0 W/m 0,0 km/h (0 Bft) 95,74 %
19.10.2023 21:02 14,9 C 13,9 C 10,6 C 97 % 989,3 hPa 0,0 l/m 0 min 0 min 0 W/m 0,0 km/h (0 Bft) 93,62 %
19.10.2023 21:04 14,9 C 13,9 C 10,6 C 97 % 989,2 hPa 0,0 l/m 0 min 0 min 0 W/m 0,0 km/h (0 Bft) 96,00 %
19.10.2023 21:06 14,9 C 13,9 C 10,6 C 97 % 989,2 hPa 0,0 l/m 0 min 0 min 0 W/m 0,0 km/h (0 Bft) 95,74 %
19.10.2023 21:08 14,9 C 13,9 C 10,6 C 97 % 989,2 hPa 0,0 l/m 0 min 0 min 0 W/m 0,0 km/h (0 Bft) 95,74 %
19.10.2023 21:10 14,9 C 13,9 C 10,6 C 97 % 989,2 hPa 0,0 l/m 0 min 0 min 0 W/m 0,0 km/h (0 Bft) 95,74 %
19.10.2023 21:12 14,9 C 13,9 C 10,6 C 97 % 989,3 hPa 0,0 l/m 0 min 0 min 0 W/m 0,0 km/h (0 Bft) 91,43 %
19.10.2023 21:14 14,9 C 13,9 C 10,6 C 97 % 989,2 hPa 0,0 l/m 0 min 0 min 0 W/m 0,0 km/h (0 Bft) 94,83 %
19.10.2023 21:16 14,8 C 13,9 C 10,6 C 97 % 989,1 hPa 0,0 l/m 0 min 0 min 0 W/m 0,0 km/h (0 Bft) 94,29 %
19.10.2023 21:18 14,8 C 13,9 C 10,6 C 97 % 989,0 hPa 0,0 l/m 0 min 0 min 0 W/m 0,0 km/h (0 Bft) 93,62 %
19.10.2023 21:20 14,8 C 13,9 C 10,6 C 97 % 989,0 hPa 0,0 l/m 0 min 0 min 0 W/m 0,0 km/h (0 Bft) 95,74 %
19.10.2023 21:22 14,8 C 13,9 C 10,6 C 97 % 989,1 hPa 0,0 l/m 0 min 0 min 0 W/m 0,0 km/h (0 Bft) 95,74 %
19.10.2023 21:24 14,8 C 13,9 C 10,6 C 97 % 989,1 hPa 0,0 l/m 0 min 0 min 0 W/m 0,0 km/h (0 Bft) 95,74 %
19.10.2023 21:26 14,8 C 13,9 C 10,6 C 97 % 989,1 hPa 0,0 l/m 0 min 0 min 0 W/m 0,0 km/h (0 Bft) 93,62 %
19.10.2023 21:28 14,8 C 13,9 C 10,6 C 97 % 989,1 hPa 0,0 l/m 0 min 0 min 0 W/m 0,0 km/h (0 Bft) 95,65 %
19.10.2023 21:30 14,8 C 13,9 C 10,6 C 97 % 989,1 hPa 0,0 l/m 0 min 0 min 0 W/m 0,0 km/h (0 Bft) 95,74 %
19.10.2023 21:32 14,8 C 13,9 C 10,6 C 97 % 989,1 hPa 0,0 l/m 0 min 0 min 0 W/m 0,0 km/h (0 Bft) 93,62 %
19.10.2023 21:34 14,8 C 13,9 C 10,6 C 97 % 989,2 hPa 0,0 l/m 0 min 0 min 0 W/m 0,0 km/h (0 Bft) 97,87 %
19.10.2023 21:36 14,8 C 13,9 C 10,6 C 97 % 989,3 hPa 0,0 l/m 0 min 0 min 0 W/m 0,0 km/h (0 Bft) 93,62 %
19.10.2023 21:38 14,8 C 13,9 C 10,6 C 97 % 989,3 hPa 0,0 l/m 0 min 0 min 0 W/m 0,0 km/h (0 Bft) 93,62 %
19.10.2023 21:40 14,8 C 13,9 C 10,6 C 97 % 989,4 hPa 0,0 l/m 0 min 0 min 0 W/m 0,0 km/h (0 Bft) 97,87 %
19.10.2023 21:42 14,8 C 13,9 C 10,6 C 98 % 989,3 hPa 0,0 l/m 0 min 0 min 0 W/m 0,0 km/h (0 Bft) 97,83 %
19.10.2023 21:44 14,8 C 13,9 C 10,6 C 98 % 989,3 hPa 0,0 l/m 0 min 0 min 0 W/m 0,0 km/h (0 Bft) 97,87 %
19.10.2023 21:46 14,8 C 13,9 C 10,6 C 98 % 989,3 hPa 0,0 l/m 0 min 0 min 0 W/m 0,0 km/h (0 Bft) 97,87 %
19.10.2023 21:48 14,8 C 13,9 C 10,6 C 98 % 989,4 hPa 0,0 l/m 0 min 0 min 0 W/m 3,2 km/h (1 Bft) 97,87 %
19.10.2023 21:50 14,8 C 13,9 C 10,6 C 98 % 989,4 hPa 0,0 l/m 0 min 0 min 0 W/m 0,0 km/h (0 Bft) 97,87 %
19.10.2023 21:52 14,8 C 13,9 C 10,6 C 98 % 989,5 hPa 0,0 l/m 0 min 0 min 0 W/m 0,0 km/h (0 Bft) 100,00 %
19.10.2023 21:54 14,8 C 13,9 C 10,6 C 98 % 989,4 hPa 0,0 l/m 0 min 0 min 0 W/m 0,0 km/h (0 Bft) 100,00 %
19.10.2023 21:56 14,8 C 13,9 C 10,6 C 98 % 989,3 hPa 0,0 l/m 0 min 0 min 0 W/m 0,0 km/h (0 Bft) 97,83 %
19.10.2023 21:58 14,8 C 13,9 C 10,6 C 98 % 989,3 hPa 0,0 l/m 0 min 0 min 0 W/m 12,9 km/h (3 Bft) 97,92 %
19.10.2023 22:00 14,8 C 13,9 C 10,6 C 98 % 989,3 hPa 0,0 l/m 0 min 0 min 0 W/m 3,2 km/h (1 Bft) 97,83 %
19.10.2023 22:02 14,8 C 13,9 C 10,6 C 98 % 989,3 hPa 0,0 l/m 0 min 0 min 0 W/m 3,2 km/h (1 Bft) 97,87 %
19.10.2023 22:04 14,8 C 13,9 C 10,6 C 98 % 989,3 hPa 0,0 l/m 0 min 0 min 0 W/m 9,7 km/h (2 Bft) 98,04 %
19.10.2023 22:06 14,8 C 13,9 C 10,6 C 98 % 989,3 hPa 0,0 l/m 0 min 0 min 0 W/m 3,2 km/h (1 Bft) 98,28 %
19.10.2023 22:08 14,8 C 13,9 C 10,6 C 98 % 989,3 hPa 0,0 l/m 0 min 0 min 0 W/m 6,4 km/h (2 Bft) 97,87 %
19.10.2023 22:10 14,8 C 13,9 C 10,6 C 98 % 989,3 hPa 0,0 l/m 0 min 0 min 0 W/m 16,1 km/h (3 Bft) 97,14 %
19.10.2023 22:12 14,8 C 13,9 C 10,6 C 98 % 989,3 hPa 0,0 l/m 0 min 0 min 0 W/m 6,4 km/h (2 Bft) 95,74 %
19.10.2023 22:14 14,8 C 13,9 C 10,6 C 98 % 989,3 hPa 0,0 l/m 0 min 0 min 0 W/m 6,4 km/h (2 Bft) 97,87 %
19.10.2023 22:16 14,8 C 13,9 C 10,6 C 98 % 989,3 hPa 0,0 l/m 0 min 0 min 0 W/m 12,9 km/h (3 Bft) 97,87 %
19.10.2023 22:18 14,8 C 13,9 C 10,6 C 98 % 989,2 hPa 0,0 l/m 0 min 0 min 0 W/m 12,9 km/h (3 Bft) 97,87 %
19.10.2023 22:20 14,8 C 13,9 C 10,6 C 98 % 989,2 hPa 0,0 l/m 0 min 0 min 0 W/m 6,4 km/h (2 Bft) 97,87 %
19.10.2023 22:22 14,8 C 13,9 C 10,6 C 98 % 989,2 hPa 0,0 l/m 0 min 0 min 0 W/m 3,2 km/h (1 Bft) 95,74 %
19.10.2023 22:24 14,8 C 13,9 C 11,1 C 98 % 989,1 hPa 0,0 l/m 0 min 0 min 0 W/m 16,1 km/h (3 Bft) 95,65 %
19.10.2023 22:26 14,7 C 13,9 C 10,6 C 98 % 989,1 hPa 0,0 l/m 0 min 0 min 0 W/m 6,4 km/h (2 Bft) 95,74 %
19.10.2023 22:28 14,8 C 13,9 C 10,6 C 98 % 989,0 hPa 0,0 l/m 0 min 0 min 0 W/m 3,2 km/h (1 Bft) 93,62 %
19.10.2023 22:30 14,7 C 13,9 C 10,6 C 98 % 989,0 hPa 0,0 l/m 0 min 0 min 0 W/m 6,4 km/h (2 Bft) 100,00 %
19.10.2023 22:32 14,7 C 13,9 C 10,6 C 98 % 989,0 hPa 0,0 l/m 0 min 0 min 0 W/m 16,1 km/h (3 Bft) 100,00 %
19.10.2023 22:34 14,7 C 13,9 C 10,6 C 98 % 988,9 hPa 0,0 l/m 0 min 0 min 0 W/m 6,4 km/h (2 Bft) 100,00 %
19.10.2023 22:36 14,7 C 13,9 C 11,1 C 98 % 988,9 hPa 0,0 l/m 0 min 0 min 0 W/m 9,7 km/h (2 Bft) 97,87 %
19.10.2023 22:38 14,7 C 13,9 C 11,1 C 98 % 988,9 hPa 0,0 l/m 0 min 0 min 0 W/m 12,9 km/h (3 Bft) 97,83 %
19.10.2023 22:40 14,7 C 13,9 C 11,1 C 98 % 988,9 hPa 0,0 l/m 0 min 0 min 0 W/m 6,4 km/h (2 Bft) 100,00 %
19.10.2023 22:42 14,7 C 13,9 C 11,1 C 98 % 988,7 hPa 0,0 l/m 0 min 0 min 0 W/m 19,3 km/h (3 Bft) 100,00 %
19.10.2023 22:44 14,7 C 13,9 C 11,1 C 98 % 988,7 hPa 0,0 l/m 0 min 0 min 0 W/m 16,1 km/h (3 Bft) 100,00 %
19.10.2023 22:46 14,7 C 13,9 C 11,1 C 98 % 988,6 hPa 0,0 l/m 0 min 0 min 0 W/m 6,4 km/h (2 Bft) 100,00 %
19.10.2023 22:48 14,7 C 13,9 C 11,1 C 98 % 988,5 hPa 0,0 l/m 0 min 0 min 0 W/m 6,4 km/h (2 Bft) 100,00 %
19.10.2023 22:50 14,7 C 13,9 C 10,6 C 98 % 988,5 hPa 0,0 l/m 0 min 0 min 0 W/m 3,2 km/h (1 Bft) 97,87 %
19.10.2023 22:52 14,7 C 13,9 C 10,6 C 98 % 988,4 hPa 0,0 l/m 0 min 0 min 0 W/m 6,4 km/h (2 Bft) 97,83 %
19.10.2023 22:54 14,7 C 13,9 C 10,6 C 98 % 988,4 hPa 0,0 l/m 0 min 0 min 0 W/m 6,4 km/h (2 Bft) 100,00 %
19.10.2023 22:56 14,7 C 13,9 C 10,6 C 98 % 988,3 hPa 0,0 l/m 0 min 0 min 0 W/m 12,9 km/h (3 Bft) 100,00 %
19.10.2023 22:58 14,7 C 13,9 C 10,6 C 98 % 988,3 hPa 0,0 l/m 0 min 0 min 0 W/m 6,4 km/h (2 Bft) 100,00 %
19.10.2023 23:00 14,7 C 13,9 C 10,6 C 98 % 988,3 hPa 0,0 l/m 0 min 0 min 0 W/m 9,7 km/h (2 Bft) 100,00 %
19.10.2023 23:02 14,7 C 13,9 C 10,6 C 98 % 988,2 hPa 0,0 l/m 0 min 0 min 0 W/m 6,4 km/h (2 Bft) 97,87 %
19.10.2023 23:04 14,7 C 13,9 C 10,6 C 98 % 988,3 hPa 0,0 l/m 0 min 0 min 0 W/m 9,7 km/h (2 Bft) 100,00 %
19.10.2023 23:06 14,7 C 13,9 C 10,6 C 98 % 988,3 hPa 0,0 l/m 0 min 0 min 0 W/m 6,4 km/h (2 Bft) 100,00 %
19.10.2023 23:08 14,6 C 13,9 C 10,6 C 98 % 988,2 hPa 0,0 l/m 0 min 0 min 0 W/m 3,2 km/h (1 Bft) 97,14 %
19.10.2023 23:10 14,6 C 13,9 C 10,6 C 98 % 988,2 hPa 0,0 l/m 0 min 0 min 0 W/m 6,4 km/h (2 Bft) 100,00 %
19.10.2023 23:12 14,6 C 13,9 C 10,6 C 98 % 988,2 hPa 0,0 l/m 0 min 0 min 0 W/m 6,4 km/h (2 Bft) 100,00 %
19.10.2023 23:14 14,6 C 13,9 C 10,6 C 98 % 988,1 hPa 0,0 l/m 0 min 0 min 0 W/m 12,9 km/h (3 Bft) 100,00 %
19.10.2023 23:16 14,6 C 13,9 C 10,6 C 98 % 988,1 hPa 0,0 l/m 0 min 0 min 0 W/m 16,1 km/h (3 Bft) 100,00 %
19.10.2023 23:18 14,6 C 13,9 C 10,6 C 98 % 988,0 hPa 0,0 l/m 0 min 0 min 0 W/m 6,4 km/h (2 Bft) 100,00 %
19.10.2023 23:20 14,6 C 13,9 C 10,6 C 98 % 988,1 hPa 0,0 l/m 0 min 0 min 0 W/m 6,4 km/h (2 Bft) 100,00 %
19.10.2023 23:22 14,6 C 13,9 C 10,6 C 98 % 988,0 hPa 0,0 l/m 0 min 0 min 0 W/m 6,4 km/h (2 Bft) 97,87 %
19.10.2023 23:24 14,6 C 13,9 C 10,6 C 98 % 988,0 hPa 0,0 l/m 0 min 0 min 0 W/m 9,7 km/h (2 Bft) 100,00 %
19.10.2023 23:26 14,6 C 13,9 C 10,6 C 98 % 987,9 hPa 0,0 l/m 0 min 0 min 0 W/m 6,4 km/h (2 Bft) 97,87 %
19.10.2023 23:28 14,5 C 13,9 C 10,6 C 98 % 987,9 hPa 0,0 l/m 0 min 0 min 0 W/m 6,4 km/h (2 Bft) 100,00 %
19.10.2023 23:30 14,5 C 13,9 C 10,6 C 98 % 988,0 hPa 0,0 l/m 0 min 0 min 0 W/m 6,4 km/h (2 Bft) 100,00 %
19.10.2023 23:32 14,5 C 13,9 C 10,6 C 98 % 988,0 hPa 0,0 l/m 0 min 0 min 0 W/m 6,4 km/h (2 Bft) 97,87 %
19.10.2023 23:34 14,4 C 13,9 C 10,6 C 98 % 987,9 hPa 0,0 l/m 0 min 0 min 0 W/m 6,4 km/h (2 Bft) 100,00 %
19.10.2023 23:36 14,4 C 13,9 C 10,6 C 98 % 987,9 hPa 0,0 l/m 0 min 0 min 0 W/m 3,2 km/h (1 Bft) 97,87 %
19.10.2023 23:38 14,4 C 13,9 C 10,6 C 98 % 987,8 hPa 0,0 l/m 0 min 0 min 0 W/m 6,4 km/h (2 Bft) 100,00 %
19.10.2023 23:40 14,4 C 13,9 C 10,6 C 98 % 987,9 hPa 0,0 l/m 0 min 0 min 0 W/m 3,2 km/h (1 Bft) 100,00 %
19.10.2023 23:42 14,4 C 13,9 C 10,6 C 98 % 987,8 hPa 0,0 l/m 0 min 0 min 0 W/m 6,4 km/h (2 Bft) 97,87 %
19.10.2023 23:44 14,4 C 13,9 C 10,6 C 98 % 987,8 hPa 0,0 l/m 0 min 0 min 0 W/m 6,4 km/h (2 Bft) 95,65 %
19.10.2023 23:46 14,4 C 13,9 C 10,6 C 98 % 987,8 hPa 0,0 l/m 0 min 0 min 0 W/m 3,2 km/h (1 Bft) 95,74 %
19.10.2023 23:48 14,4 C 13,9 C 10,6 C 98 % 987,7 hPa 0,0 l/m 0 min 0 min 0 W/m 6,4 km/h (2 Bft) 93,62 %
19.10.2023 23:50 14,4 C 13,9 C 10,6 C 98 % 987,8 hPa 0,0 l/m 0 min 0 min 0 W/m 3,2 km/h (1 Bft) 91,49 %
19.10.2023 23:52 14,3 C 13,9 C 10,6 C 98 % 987,7 hPa 0,0 l/m 0 min 0 min 0 W/m 6,4 km/h (2 Bft) 91,49 %
19.10.2023 23:54 14,3 C 13,9 C 10,6 C 98 % 987,7 hPa 0,0 l/m 0 min 0 min 0 W/m 3,2 km/h (1 Bft) 93,62 %
19.10.2023 23:56 14,3 C 13,9 C 10,6 C 98 % 987,7 hPa 0,0 l/m 0 min 0 min 0 W/m 6,4 km/h (2 Bft) 93,62 %
19.10.2023 23:58 14,3 C 13,9 C 10,6 C 98 % 987,7 hPa 0,0 l/m 0 min 0 min 0 W/m 3,2 km/h (1 Bft) 93,48 %
_ Min-Zeit 00:00 00:00 00:00 13:18 23:48 - - - - 04:30 00:05
Minimum _ 10,4 C 9,4 C 5,6 C 83 % 987,7 hPa - - - - 0,0 km/h (0 Bft) 47,37 %
_ Max-Zeit 13:14 11:36 13:46 08:40 00:00 00:00 17:16 00:05 11:18 00:15 00:00
Maximum _ 18,2 C 23,3 C 13,9 C 99 % 996,4 hPa 1,6 l/m 5 min 5 min 383 W/m 38,6 km/h
SO (5 Bft)
100,00 %
Durchschnitt _ 14,1 C 13,7 C 9,8 C 95 % 992,6 hPa #2,0 l/m #1:15 h #1:29 h 99 W/m 8,3 km/h (2 Bft) 97,54 %
© 2023 W. Hausmann